YYYY MM/DD hh:mm	Temp	Humid	W_dir	W_spd	Barom	T_int	Light	Power	Temp2	P2	Snow	T_mid	T_base	Precip
Year Date  Time 	(F)	(%)	(Deg)	(MPH)	("Hg)	(F)	/1000	(V)	(F)	-	(")	(F)	(F)	(")
2017 05/15 00:00	28.4	102.0	310.5	0.0	29.79	38.0	-0.3	13.03	-40.0	0	76.6	27.2	33.5	0	43	0	0	0	48.3	39.9	77.9
2017 05/15 00:15	28.3	101.9	288.5	0.0	29.80	37.9	-0.3	13.03	-40.0	0	76.6	27.2	33.4	0	43	0	0	0	48.0	39.8	77.9
2017 05/15 00:30	28.2	102.0	294.8	0.0	29.79	37.8	0.0	13.02	-40.0	0	76.6	27.2	33.6	0	43	0	0	0	47.7	39.7	77.9
2017 05/15 00:45	28.3	101.8	284.3	0.0	29.79	37.7	0.0	13.03	-40.0	0	76.6	27.2	33.5	0	43	0	0	0	47.5	39.6	77.9
2017 05/15 01:00	28.1	101.9	309.0	0.0	29.79	37.5	0.0	13.03	-40.0	0	76.5	27.2	33.3	0	43	0	0	0	47.1	39.5	77.9
2017 05/15 01:15	27.7	101.8	302.8	0.0	29.79	37.4	0.0	13.04	-40.0	0	76.7	26.3	33.2	0	43	0	0	0	46.9	39.5	77.9
2017 05/15 01:30	27.6	101.6	267.1	0.0	29.78	37.3	-0.3	13.03	-40.0	0	76.6	26.3	33.0	0	43	0	0	0	46.6	39.3	77.9
2017 05/15 01:45	27.6	101.5	274.6	0.0	29.78	37.2	0.0	13.03	-40.0	0	76.5	26.3	32.5	0	43	0	0	0	46.2	39.3	77.9
2017 05/15 02:00	27.4	101.5	257.9	0.0	29.78	37.1	0.0	13.02	-40.0	0	76.6	26.3	32.5	0	43	0	0	0	46.0	39.0	77.9
2017 05/15 02:15	27.4	101.5	246.4	0.0	29.78	36.9	0.0	13.02	-39.9	0	76.5	26.3	32.5	0	43	0	0	0	45.7	39.0	77.9
2017 05/15 02:30	27.4	101.5	256.0	0.0	29.78	36.8	-0.3	13.04	-40.0	0	76.6	26.3	32.8	0	43	0	0	0	45.5	38.9	77.9
2017 05/15 02:45	27.6	101.5	259.7	0.0	29.77	36.6	0.0	13.03	-39.9	0	76.6	26.3	33.0	0	43	0	0	0	45.2	38.8	77.9
2017 05/15 03:00	27.6	101.4	245.3	0.0	29.76	36.4	0.0	13.03	-40.0	0	76.5	26.3	33.0	0	43	0	0	0	45.0	38.7	77.9
2017 05/15 03:15	27.4	101.6	219.1	0.0	29.76	36.3	0.0	13.02	-40.1	0	76.6	25.4	32.6	0	43	0	0	0	44.8	38.6	77.9
2017 05/15 03:30	27.7	101.5	227.6	0.0	29.75	36.1	0.0	13.02	-40.0	0	76.7	24.5	31.4	0	43	0	0	0	44.5	38.5	77.9
2017 05/15 03:45	27.4	101.5	235.6	0.0	29.75	36.0	0.3	13.02	-40.1	0	76.5	25.4	31.6	0	43	0	0	0	44.3	38.4	77.9
2017 05/15 04:00	27.3	101.5	253.2	0.0	29.75	35.8	0.0	13.03	-40.0	0	76.6	25.4	32.0	0	43	0	0	0	44.0	38.4	77.8
2017 05/15 04:15	27.3	101.4	265.4	0.0	29.75	35.6	0.0	13.03	-40.0	0	76.7	25.4	32.1	0	43	0	0	0	43.8	38.2	77.8
2017 05/15 04:30	27.2	101.3	268.6	0.0	29.74	35.5	0.0	13.03	-40.1	0	76.7	25.4	32.5	0	43	0	0	0	43.5	38.1	77.8
2017 05/15 04:45	27.0	101.3	258.7	0.0	29.73	35.4	0.0	13.03	-40.0	0	76.5	26.3	32.4	0	43	0	0	0	43.4	38.0	77.8
2017 05/15 05:00	26.5	101.1	237.2	0.0	29.74	35.2	0.7	13.03	-40.0	0	76.7	25.4	32.8	0	43	0	0	0	43.2	38.0	77.9
2017 05/15 05:15	26.7	101.1	267.7	0.0	29.74	35.1	7.1	13.03	-40.0	0	76.7	25.4	32.8	0	43	0	0	0	43.1	37.9	77.9
2017 05/15 05:30	26.8	101.3	263.2	0.0	29.73	34.9	75.7	13.02	-40.0	0	76.7	25.4	33.0	0	43	0	0	0	43.0	37.9	77.9
2017 05/15 05:45	26.5	101.3	247.0	0.0	29.73	34.8	264.4	13.03	-40.0	0	76.7	25.4	33.0	0	43	0	0	0	42.9	37.8	77.9
2017 05/15 06:00	26.6	101.2	270.8	0.0	29.72	34.6	421.9	13.03	-40.0	0	76.7	25.4	33.2	0	43	0	0	0	42.6	37.8	77.9
2017 05/15 06:15	26.6	101.0	269.7	0.0	29.72	34.5	581.4	13.03	-40.0	0	76.7	25.4	33.5	0	43	0	0	0	42.5	37.7	77.9
2017 05/15 06:30	26.5	101.2	261.1	0.0	29.73	34.4	659.2	13.02	-40.1	0	76.5	26.3	33.4	0	43	0	0	0	42.4	37.7	77.9
2017 05/15 06:45	26.2	100.9	242.4	0.0	29.72	34.2	744.0	13.02	-39.9	0	76.5	26.3	34.0	0	43	0	0	0	42.3	37.7	77.9
2017 05/15 07:00	26.1	101.1	268.4	0.0	29.72	34.1	773.0	13.03	-40.0	0	76.5	26.3	34.0	0	43	0	0	0	42.4	37.6	78.0
2017 05/15 07:15	26.0	101.2	265.2	0.0	29.72	33.9	803.0	13.03	-39.9	0	76.5	27.2	34.8	0	43	0	0	0	42.4	37.6	78.0
2017 05/15 07:30	26.7	101.3	253.1	0.0	29.72	33.9	829.0	13.03	-40.0	0	76.4	27.2	34.6	0	43	0	0	0	42.4	37.6	78.0
2017 05/15 07:45	26.4	101.1	270.1	0.0	29.71	33.7	840.0	13.02	-39.9	0	76.3	28.1	34.6	0	43	0	0	0	42.5	37.7	78.0
2017 05/15 08:00	26.2	101.2	233.7	0.0	29.72	33.7	846.0	13.03	-40.0	0	76.3	28.1	35.1	0	43	0	0	0	42.7	37.7	78.0
2017 05/15 08:15	26.7	101.3	226.3	0.0	29.72	33.5	869.0	13.03	-40.0	0	76.3	28.1	35.2	0	43	0	0	0	42.7	37.8	78.0
2017 05/15 08:30	27.2	101.5	258.8	0.0	29.72	33.5	877.0	13.03	-40.0	0	76.3	29.9	35.5	0	43	0	0	0	43.0	37.9	78.0
2017 05/15 08:45	27.6	101.6	263.6	0.0	29.72	33.5	881.0	13.02	-40.0	0	76.3	29.0	35.4	0	43	0	0	0	43.3	38.0	78.0
2017 05/15 09:00	27.8	101.7	262.8	0.0	29.72	33.5	872.0	13.03	-40.0	0	76.3	29.9	36.2	0	43	0	0	0	43.7	38.1	78.0
2017 05/15 09:15	28.3	102.0	265.8	0.0	29.72	33.3	889.0	13.03	-39.9	0	76.2	29.9	37.0	0	43	0	0	0	44.0	38.2	78.0
2017 05/15 09:30	29.0	102.2	257.5	0.0	29.71	33.3	895.0	13.03	-39.9	0	76.3	30.8	36.9	0	43	0	0	0	44.7	38.5	78.0
2017 05/15 09:45	29.0	102.2	260.9	0.0	29.72	33.3	900.0	13.03	-40.0	0	76.2	31.7	38.7	0	43	0	0	0	45.3	38.7	78.0
2017 05/15 10:00	28.9	102.2	211.4	0.0	29.72	33.3	900.0	13.03	-40.0	0	75.9	33.5	38.0	0	43	0	0	0	46.2	39.0	78.0
2017 05/15 10:15	29.8	102.4	261.0	0.0	29.73	33.5	882.0	13.03	-40.0	0	76.2	33.5	39.6	0	43	0	0	0	46.9	39.4	78.0
2017 05/15 10:30	29.2	102.6	228.7	0.0	29.72	33.5	897.0	13.03	-40.0	0	76.3	33.5	40.2	0	43	0	0	0	47.9	39.8	78.0
2017 05/15 10:45	29.9	102.5	242.8	0.0	29.72	33.6	877.0	13.03	-40.0	0	76.3	35.3	39.9	0	43	0	0	0	49.0	40.4	78.0
2017 05/15 11:00	29.8	102.6	202.3	0.0	29.72	33.7	897.0	13.02	-40.1	0	76.5	34.4	42.0	0	43	0	0	0	50.1	41.1	78.0
2017 05/15 11:15	29.6	102.5	221.5	0.0	29.73	33.9	891.0	13.03	-40.0	0	76.2	35.3	41.8	0	43	0	0	0	50.9	41.4	78.0
2017 05/15 11:30	30.8	102.6	282.9	0.0	29.73	33.9	890.0	13.03	-40.1	0	76.1	37.1	40.5	0	43	0	0	0	51.7	42.0	78.0
2017 05/15 11:45	31.2	102.6	234.7	0.0	29.72	34.1	893.0	13.02	-40.0	0	76.3	37.1	43.2	0	43	0	0	0	53.0	42.6	78.0
2017 05/15 12:00	31.2	102.6	238.1	0.0	29.72	34.3	899.0	13.03	-40.0	0	76.4	38.9	41.5	0	43	0	0	0	54.2	43.2	78.0
2017 05/15 12:15	31.1	102.7	254.6	0.0	29.72	34.5	906.0	13.02	-40.0	0	76.7	38.0	42.9	0	43	0	0	0	54.8	43.5	78.0
2017 05/15 12:30	30.7	102.8	226.4	0.0	29.72	34.6	872.0	13.02	-40.0	0	76.4	38.9	43.3	0	43	0	0	0	55.6	43.9	78.0
2017 05/15 12:45	31.0	103.0	244.6	0.0	29.72	34.8	889.0	13.02	-40.0	0	76.4	38.9	44.4	0	43	0	0	0	56.1	44.2	78.0
2017 05/15 13:00	31.2	102.8	238.0	0.0	29.73	34.9	902.0	13.03	-40.1	0	76.3	38.0	45.9	0	43	0	0	0	57.0	44.8	78.0
2017 05/15 13:15	31.6	102.8	207.5	0.0	29.72	35.2	872.0	13.02	-39.9	0	76.5	38.9	45.9	0	43	0	0	0	57.4	45.1	78.0
2017 05/15 13:30	31.5	102.8	250.8	0.0	29.72	35.4	896.0	13.03	-40.0	0	76.4	40.7	47.9	0	43	0	0	0	57.8	45.3	78.0
2017 05/15 13:45	31.6	102.8	240.2	0.0	29.71	35.6	898.0	13.03	-40.0	0	76.3	40.7	47.7	0	43	0	0	0	58.3	45.6	78.0
2017 05/15 14:00	32.0	102.8	218.3	0.0	29.71	35.7	895.0	13.03	-40.0	0	76.2	40.7	47.8	0	43	0	0	0	58.5	45.8	78.0
2017 05/15 14:15	31.6	102.8	232.2	0.0	29.71	36.0	891.0	13.03	-40.0	0	76.1	40.7	48.0	0	43	0	0	0	58.7	45.8	78.0
2017 05/15 14:30	31.7	102.8	222.2	0.0	29.72	36.2	881.0	13.02	-40.0	0	76.1	40.7	48.4	0	43	0	0	0	59.0	45.8	78.0
2017 05/15 14:45	32.0	102.5	266.7	0.0	29.71	36.3	887.0	13.03	-40.0	0	75.9	42.5	48.6	0	43	0	0	0	59.1	45.7	78.0
2017 05/15 15:00	32.7	100.3	212.6	0.0	29.71	36.5	892.0	13.03	-40.0	0	75.7	41.6	48.9	0	43	0	0	0	59.2	45.6	78.0
2017 05/15 15:15	33.5	95.7	216.5	0.0	29.71	36.7	893.0	13.03	-40.0	0	75.9	41.6	49.5	0	43	0	0	0	59.3	45.5	78.0
2017 05/15 15:30	33.9	88.2	226.2	0.0	29.71	36.9	892.0	13.03	-40.0	0	75.9	41.6	49.9	0	43	0	0	0	59.5	45.5	78.0
2017 05/15 15:45	35.4	81.9	235.5	0.0	29.71	37.1	890.0	13.03	-40.0	0	75.7	41.6	49.6	0	43	0	0	0	59.6	45.3	78.0
2017 05/15 16:00	36.7	79.4	239.8	0.0	29.70	37.3	899.0	13.03	-40.1	0	75.6	40.7	50.4	0	43	0	0	0	59.7	45.2	77.8
2017 05/15 16:15	37.6	76.2	229.0	0.0	29.70	37.5	904.0	13.03	-40.0	0	75.4	41.6	49.9	0	43	0	0	0	60.0	45.2	77.8
2017 05/15 16:30	38.3	71.9	262.1	0.0	29.71	37.7	897.0	13.03	-40.0	0	75.1	42.5	50.1	0	43	0	0	0	60.2	45.2	77.8
2017 05/15 16:45	37.5	85.7	246.8	0.0	29.71	38.0	904.0	13.03	-40.0	0	75.3	41.6	49.6	0	43	0	0	0	60.5	45.1	77.8
2017 05/15 17:00	37.0	85.4	260.6	0.0	29.71	38.3	910.0	13.04	-40.0	0	75.3	41.6	49.2	0	43	0	0	0	60.6	45.1	77.4
2017 05/15 17:15	37.0	84.1	252.3	0.0	29.70	38.5	916.0	13.03	-40.0	0	75.4	41.6	49.4	0	43	0	0	0	60.7	45.1	77.4
2017 05/15 17:30	36.5	80.2	242.5	0.0	29.70	38.7	950.0	13.03	-40.0	0	75.3	38.9	47.8	0	43	0	0	0	60.7	45.1	77.4
2017 05/15 17:45	36.9	80.3	216.8	0.0	29.70	39.0	939.0	13.03	-40.0	0	74.9	38.9	47.5	0	43	0	0	0	60.5	45.1	77.4
2017 05/15 18:00	36.6	82.1	229.1	0.0	29.71	39.2	945.0	13.03	-39.9	0	75.1	38.0	46.0	0	43	0	0	0	60.3	45.0	77.7
2017 05/15 18:15	36.1	83.2	268.0	0.0	29.71	39.5	868.0	13.03	-39.9	0	75.1	37.1	45.7	0	43	0	0	0	60.1	44.9	77.7
2017 05/15 18:30	35.9	84.1	242.9	0.0	29.70	39.8	804.0	13.03	-40.0	0	75.2	36.2	44.2	0	43	0	0	0	59.6	44.8	77.7
2017 05/15 18:45	35.4	86.5	245.2	0.0	29.70	39.9	770.0	13.03	-39.9	0	75.0	36.2	43.3	0	43	0	0	0	59.1	44.7	77.7
2017 05/15 19:00	35.0	88.5	248.5	0.0	29.70	40.1	657.1	13.03	-40.0	0	74.8	35.3	42.2	0	43	0	0	0	58.4	44.4	77.7
2017 05/15 19:15	34.8	89.5	229.2	0.0	29.70	40.3	619.4	13.03	-39.9	0	74.8	35.3	41.8	0	43	0	0	0	57.9	44.3	77.7
2017 05/15 19:30	34.2	91.7	242.4	0.0	29.70	40.4	648.2	13.03	-40.1	0	74.9	34.4	41.4	0	43	0	0	0	57.3	44.1	77.7
2017 05/15 19:45	33.9	92.4	238.7	0.0	29.70	40.5	546.8	13.04	-40.0	0	74.9	34.4	40.6	0	43	0	0	0	56.7	43.9	77.7
2017 05/15 20:00	33.4	95.5	279.5	0.0	29.70	40.6	359.7	13.03	-40.0	0	75.0	33.5	40.3	0	43	0	0	0	56.0	43.8	78.0
2017 05/15 20:15	33.2	96.8	234.8	0.0	29.69	40.6	237.9	13.04	-39.9	0	75.0	33.5	40.0	0	43	0	0	0	55.6	43.5	78.0
2017 05/15 20:30	32.7	97.7	259.3	0.0	29.68	40.7	89.6	13.03	-40.0	0	75.2	32.6	39.4	0	43	0	0	0	55.0	43.4	78.0
2017 05/15 20:45	32.1	100.3	237.4	0.0	29.67	40.7	19.0	13.03	-40.0	0	75.2	31.7	38.7	0	43	0	0	0	54.5	43.2	78.0
2017 05/15 21:00	31.6	100.3	225.8	0.0	29.68	40.7	1.0	13.04	-40.0	0	75.0	31.7	38.0	0	43	0	0	0	53.8	42.9	78.0
2017 05/15 21:15	31.4	101.8	230.0	0.0	29.67	40.6	0.0	13.03	-40.0	0	75.1	30.8	37.7	0	43	0	0	0	53.3	42.7	78.0
2017 05/15 21:30	31.0	102.3	245.9	0.0	29.66	40.6	-0.3	13.03	-40.0	0	75.2	29.9	37.2	0	43	0	0	0	52.7	42.5	78.0
2017 05/15 21:45	31.0	102.6	221.5	0.0	29.66	40.5	0.0	13.03	-40.0	0	75.2	29.9	37.0	0	43	0	0	0	52.1	42.3	78.0
2017 05/15 22:00	31.4	102.6	254.1	0.0	29.66	40.4	0.0	13.03	-40.0	0	75.2	29.9	36.6	0	43	0	0	0	51.5	42.2	78.0
2017 05/15 22:15	31.1	102.6	244.8	0.0	29.65	40.3	0.0	13.03	-40.1	0	75.2	29.9	36.8	0	43	0	0	0	51.1	42.0	78.0
2017 05/15 22:30	31.2	102.7	252.4	0.0	29.64	40.2	0.0	13.03	-39.9	0	75.1	29.9	36.4	0	44	0	0	0	50.6	41.9	78.0
2017 05/15 22:45	31.2	102.7	241.1	0.0	29.63	40.1	-0.3	13.03	-40.0	0	75.2	29.9	36.3	0	45	0	0	0	50.2	41.7	78.0
2017 05/15 23:00	31.0	102.8	260.5	0.0	29.62	39.9	0.0	13.04	-40.0	0	75.1	29.9	36.2	0	45	0	0	0	49.7	41.5	78.3
2017 05/15 23:15	30.9	102.8	257.7	0.0	29.60	39.8	0.0	13.03	-39.9	0	75.2	29.0	35.8	0	47	0	0	0	49.4	41.4	78.3
2017 05/15 23:30	30.4	102.8	238.7	0.0	29.60	39.6	-0.3	13.03	-40.0	0	74.7	29.0	35.4	0	47	0	0	0	48.9	41.2	78.3
2017 05/15 23:45	29.8	102.8	231.8	0.0	29.59	39.4	0.0	13.03	-39.9	0	74.8	29.0	34.8	0	48	0	0	0	48.5	41.0	78.3
2017 05/16 00:00	29.9	102.7	244.7	0.0	29.58	39.2	0.0	13.03	-40.1	0	75.1	29.0	34.6	0	48	0	0	0	48.0	40.7	77.9
2017 05/16 00:15	29.6	102.7	241.5	0.0	29.58	39.0	0.0	13.03	-40.0	0	75.0	28.1	34.5	0	48	0	0	0	47.6	40.6	77.9
2017 05/16 00:30	29.4	102.6	216.5	0.0	29.57	38.9	0.0	13.03	-39.9	0	75.4	28.1	34.3	0	48	0	0	0	47.2	40.4	77.9
2017 05/16 00:45	29.3	102.6	237.1	0.0	29.55	38.7	-0.3	13.03	-40.0	0	75.0	28.1	34.1	0	48	0	0	0	46.9	40.3	77.9
2017 05/16 01:00	29.0	102.4	216.6	0.0	29.55	38.4	-0.3	13.03	-40.0	0	75.4	28.1	33.9	0	48	0	0	0	46.5	40.0	78.0
2017 05/16 01:15	29.0	102.2	214.0	0.0	29.55	38.2	-0.3	13.03	-40.0	0	75.0	28.1	33.9	0	48	0	0	0	46.2	39.9	78.0
2017 05/16 01:30	28.9	102.2	227.1	0.0	29.55	37.9	0.0	13.03	-40.0	0	75.1	28.1	33.6	0	48	0	0	0	45.9	39.7	78.0
2017 05/16 01:45	28.8	102.2	247.5	0.0	29.54	37.7	-0.3	13.03	-40.0	0	75.2	28.1	33.4	0	48	0	0	0	45.6	39.6	78.0
2017 05/16 02:00	28.9	102.1	260.1	0.0	29.53	37.5	0.0	13.03	-39.9	0	76.0	28.1	33.5	0	48	0	0	0	45.3	39.5	78.1
2017 05/16 02:15	28.9	102.2	244.4	0.0	29.51	37.3	0.0	13.03	-40.0	0	76.6	27.2	33.4	0	48	0	0	0	45.1	39.4	78.1
2017 05/16 02:30	28.9	102.0	227.8	0.0	29.51	37.1	0.0	13.03	-40.0	0	75.0	27.2	33.3	0	48	0	0	0	44.8	39.3	78.1
2017 05/16 02:45	28.8	102.1	242.3	0.0	29.51	36.8	0.0	13.02	-40.0	0	76.8	27.2	33.3	0	48	0	0	0	44.5	39.0	78.1
2017 05/16 03:00	28.8	102.0	228.3	0.0	29.50	36.6	-0.3	13.03	-40.0	0	77.4	27.2	33.3	0	48	0	0	0	44.3	38.9	78.4
2017 05/16 03:15	28.7	102.0	228.2	0.0	29.49	36.4	0.0	13.03	-39.9	0	77.6	27.2	33.3	0	49	0	0	0	44.1	38.9	78.4
2017 05/16 03:30	28.8	102.0	248.2	0.0	29.48	36.2	0.0	13.03	-40.0	0	77.4	27.2	33.3	0	49	0	0	0	43.9	38.8	78.4
2017 05/16 03:45	28.8	102.1	224.7	0.0	29.48	36.0	0.0	13.02	-40.1	0	77.3	28.1	33.4	0	49	0	0	0	43.7	38.7	78.4
2017 05/16 04:00	29.1	102.2	246.4	0.0	29.47	35.7	-0.3	13.03	-40.0	0	78.1	28.1	33.6	0	49	0	0	0	43.4	38.6	78.1
2017 05/16 04:15	29.6	102.1	278.8	0.0	29.47	35.5	-0.3	13.03	-40.0	0	78.7	28.1	33.9	0	49	0	0	0	43.3	38.5	78.1
2017 05/16 04:30	29.5	102.4	223.3	0.0	29.46	35.3	0.0	13.03	-39.9	0	78.3	28.1	33.9	0	49	0	0	0	43.1	38.4	78.1
2017 05/16 04:45	29.8	102.2	243.3	0.0	29.45	35.1	0.3	13.03	-40.0	0	78.4	28.1	33.9	0	49	0	0	0	42.9	38.2	78.1
2017 05/16 05:00	29.8	102.4	251.7	0.0	29.45	34.9	0.3	13.02	-40.0	0	78.4	28.1	33.9	0	49	0	0	0	42.7	38.2	78.3
2017 05/16 05:15	29.6	102.3	241.1	0.0	29.45	34.7	7.8	13.02	-40.1	0	78.3	28.1	33.9	0	49	0	0	0	42.5	38.1	78.3
2017 05/16 05:30	29.6	102.4	250.6	0.0	29.45	34.5	102.8	13.02	-39.9	0	78.0	28.1	34.0	0	49	0	0	0	42.5	38.0	78.3
2017 05/16 05:45	29.5	102.4	256.7	0.0	29.44	34.3	307.9	13.02	-39.9	0	78.4	28.1	34.1	0	49	0	0	0	42.3	38.0	78.3
2017 05/16 06:00	29.6	102.4	271.5	0.0	29.44	34.2	567.5	13.02	-39.9	0	79.6	28.1	34.2	0	49	0	0	0	42.2	37.9	78.3
2017 05/16 06:15	29.6	102.4	263.1	0.0	29.43	34.1	722.0	13.03	-40.0	0	79.4	28.1	34.4	0	49	0	0	0	42.1	37.8	78.3
2017 05/16 06:30	29.8	102.4	258.6	0.0	29.43	33.9	802.0	13.02	-40.0	0	79.8	28.1	34.9	0	49	0	0	0	42.0	37.8	78.3
2017 05/16 06:45	30.0	102.4	263.0	0.0	29.41	33.8	798.0	13.03	-40.1	0	80.0	28.1	34.9	0	49	0	0	0	41.7	37.8	78.3
2017 05/16 07:00	29.9	102.5	276.3	0.0	29.41	33.7	824.0	13.02	-40.0	0	80.1	28.1	35.0	0	50	0	0	0	41.7	37.8	78.4
2017 05/16 07:15	30.1	102.6	272.4	0.0	29.41	33.5	817.0	13.02	-40.1	0	80.1	28.1	35.3	0	50	0	0	0	41.7	37.8	78.4
2017 05/16 07:30	30.1	102.5	283.8	0.0	29.40	33.5	851.0	13.03	-40.0	0	80.2	28.1	35.7	0	51	0	0	0	41.7	37.8	78.4
2017 05/16 07:45	30.4	102.6	279.6	0.0	29.39	33.3	823.0	13.02	-40.1	0	80.5	28.1	35.5	0	51	0	0	0	41.6	37.8	78.4
2017 05/16 08:00	30.6	102.6	279.8	0.0	29.39	33.2	830.0	13.02	-39.9	0	80.2	29.0	35.8	0	53	0	0	0	41.5	37.8	78.4
2017 05/16 08:15	30.8	102.6	288.1	0.0	29.39	33.1	863.0	13.02	-40.0	0	80.3	29.0	35.9	0	53	0	0	0	41.5	37.8	78.4
2017 05/16 08:30	30.8	102.6	284.6	0.0	29.39	33.0	871.0	13.02	-40.1	0	80.4	29.0	36.3	0	54	0	0	0	41.5	37.8	78.4
2017 05/16 08:45	31.1	102.6	284.6	0.0	29.38	32.9	879.0	13.03	-40.0	0	80.5	29.0	36.7	0	56	0	0	0	41.4	37.9	78.4
2017 05/16 09:00	31.2	102.7	284.6	0.0	29.38	32.9	878.0	13.03	-40.0	0	80.5	29.0	36.9	0	58	0	0	0	41.4	38.0	78.6
2017 05/16 09:15	31.6	102.8	284.7	0.0	29.37	32.9	876.0	13.02	-39.9	0	80.7	29.0	37.0	0	59	0	0	0	41.4	38.0	78.6
2017 05/16 09:30	31.6	102.9	284.6	0.0	29.37	32.7	880.0	13.02	-40.0	0	80.7	29.9	37.2	0	61	0	0	0	41.5	38.0	78.6
2017 05/16 09:45	31.6	102.9	284.6	0.0	29.36	32.6	883.0	13.02	-40.0	0	80.7	29.9	37.7	0	63	0	0	0	41.5	38.1	78.6
2017 05/16 10:00	31.7	102.8	282.3	0.0	29.37	32.6	910.0	13.02	-39.9	0	80.7	29.9	38.2	0	65	0	0	0	41.6	38.2	78.8
2017 05/16 10:15	31.7	102.9	278.0	0.0	29.37	32.6	870.0	13.02	-39.9	0	80.7	29.9	37.7	0	67	0	0	0	41.7	38.2	78.8
2017 05/16 10:30	31.7	103.0	221.0	0.0	29.37	32.6	857.0	13.03	-40.0	0	80.6	29.9	37.6	0	69	0	0	0	41.9	38.5	78.8
2017 05/16 10:45	31.7	102.9	236.5	0.0	29.39	32.6	900.0	13.02	-39.9	0	80.4	30.8	38.6	0	72	0	0	0	41.9	38.5	78.8
2017 05/16 11:00	31.9	102.9	260.0	0.0	29.37	32.6	857.0	13.02	-40.0	0	80.6	30.8	38.6	0	75	0	0	0	42.1	38.5	78.9
2017 05/16 11:15	31.7	103.1	250.8	0.0	29.37	32.6	821.0	13.02	-39.9	0	80.3	29.0	36.8	0	77	0	0	0	42.0	38.7	78.9
2017 05/16 11:30	31.6	102.9	295.4	0.0	29.38	32.6	879.0	13.03	-40.0	0	80.5	29.9	37.6	0	80	0	0	0	41.9	38.7	78.9
2017 05/16 11:45	31.7	102.9	251.0	0.0	29.37	32.6	917.0	13.03	-40.0	0	80.4	31.7	40.4	0	82	0	0	0	42.0	38.7	78.9
2017 05/16 12:00	31.9	103.0	148.6	0.0	29.39	32.7	876.0	13.03	-40.0	0	80.5	29.9	38.0	0	85	0	0	0	42.2	38.8	78.8
2017 05/16 12:15	31.5	103.0	296.2	0.0	29.39	32.8	906.0	13.03	-40.0	0	80.3	30.8	38.4	0	87	0	0	0	42.2	38.9	78.8
2017 05/16 12:30	31.7	103.0	267.5	0.0	29.41	32.8	873.0	13.02	-39.9	0	80.3	30.8	38.4	0	89	0	0	0	42.4	38.9	78.8
2017 05/16 12:45	31.5	103.1	337.8	0.0	29.42	32.9	923.0	13.03	-40.0	0	80.0	29.9	37.7	0	91	0	0	0	42.5	39.0	78.8
2017 05/16 13:00	31.6	103.1	352.5	0.0	29.43	32.9	905.0	13.02	-40.0	0	80.2	28.1	35.5	0	93	0	0	0	42.5	39.0	79.0
2017 05/16 13:15	29.2	103.2	288.4	0.0	29.44	33.1	894.0	13.03	-40.0	0	80.2	27.2	33.5	0	93	0	0	0	42.4	39.0	79.0
2017 05/16 13:30	27.9	103.3	298.8	0.0	29.45	33.1	902.0	13.02	-40.0	0	79.9	26.3	32.6	0	94	0	0	0	42.0	39.0	79.0
2017 05/16 13:45	28.3	103.2	282.5	0.0	29.46	33.2	935.0	13.03	-40.0	0	79.9	26.3	34.0	0	95	0	0	0	42.1	38.9	79.0
2017 05/16 14:00	27.7	103.0	152.4	0.0	29.47	33.3	902.0	13.03	-39.9	0	80.2	27.2	35.0	0	97	0	0	0	42.0	38.8	78.9
2017 05/16 14:15	27.8	102.6	253.7	0.0	29.47	33.4	893.0	13.03	-40.0	0	80.2	27.2	35.9	0	98	0	0	0	42.0	38.8	78.9
2017 05/16 14:30	27.6	102.1	304.4	0.0	29.48	33.5	935.0	13.03	-40.0	0	80.2	27.2	38.2	0	99	0	0	0	42.0	38.9	78.9
2017 05/16 14:45	27.9	102.0	280.4	0.0	29.48	33.5	926.0	13.03	-40.0	0	80.2	29.0	38.5	0	101	0	0	0	42.3	39.2	78.9
2017 05/16 15:00	28.4	102.0	293.5	0.0	29.49	33.7	902.0	13.03	-40.0	0	80.1	29.0	38.0	0	102	0	0	0	43.0	39.3	78.7
2017 05/16 15:15	28.7	102.2	280.0	0.0	29.50	33.7	864.0	13.03	-40.0	0	80.1	29.0	37.2	0	103	0	0	0	43.4	39.4	78.7
2017 05/16 15:30	27.3	101.6	310.9	0.0	29.50	33.9	884.0	13.03	-40.0	0	79.8	28.1	35.8	0	105	0	0	0	43.9	39.4	78.7
2017 05/16 15:45	27.6	101.7	225.9	0.0	29.52	33.9	881.0	13.03	-39.9	0	79.8	28.1	35.3	0	106	0	0	0	44.0	39.4	78.7
2017 05/16 16:00	28.2	102.0	280.4	0.0	29.53	34.0	912.0	13.02	-40.0	0	79.8	28.1	37.3	0	107	0	0	0	44.0	39.3	78.9
2017 05/16 16:15	28.3	102.0	264.2	0.0	29.53	34.1	886.0	13.03	-40.0	0	79.4	29.0	36.6	0	109	0	0	0	44.1	39.3	78.9
2017 05/16 16:30	27.8	101.8	256.0	0.0	29.52	34.1	939.0	13.03	-40.0	0	79.8	28.1	36.3	0	110	0	0	0	44.2	39.2	78.9
2017 05/16 16:45	27.8	101.8	239.2	0.0	29.53	34.2	829.0	13.02	-40.0	0	79.8	28.1	35.0	0	111	0	0	0	44.2	39.0	78.9
2017 05/16 17:00	27.7	101.7	237.0	0.0	29.54	34.3	766.0	13.02	-40.0	0	79.8	27.2	34.2	0	112	0	0	0	44.0	38.9	79.1
2017 05/16 17:15	27.0	101.6	310.1	0.0	29.54	34.4	847.0	13.03	-40.0	0	79.5	26.3	33.4	0	112	0	0	0	43.9	38.8	79.1
2017 05/16 17:30	27.0	101.4	247.7	0.0	29.54	34.3	889.0	13.03	-40.0	0	79.4	26.3	34.0	0	112	0	0	0	43.4	38.7	79.1
2017 05/16 17:45	27.3	101.5	272.5	0.0	29.55	34.3	798.0	13.03	-39.9	0	79.9	26.3	33.9	0	112	0	0	0	43.2	38.5	79.1
2017 05/16 18:00	26.8	101.2	342.8	0.0	29.54	34.3	814.0	13.03	-40.1	0	79.1	25.4	32.6	0	112	0	0	0	42.9	38.4	78.8
2017 05/16 18:15	26.7	101.2	235.8	0.0	29.55	34.3	832.0	13.02	-40.1	0	80.3	25.4	33.1	0	112	0	0	0	42.6	38.2	78.8
2017 05/16 18:30	26.1	101.0	294.7	0.0	29.54	34.3	842.0	13.02	-40.0	0	80.1	25.4	32.6	0	113	0	0	0	42.4	38.0	78.8
2017 05/16 18:45	25.7	100.8	266.3	0.0	29.56	34.3	711.0	13.03	-40.0	0	79.9	25.4	32.4	0	113	0	0	0	42.2	37.9	78.8
2017 05/16 19:00	26.1	100.9	264.8	0.0	29.57	34.3	740.0	13.02	-39.9	0	80.4	24.5	31.8	0	113	0	0	0	41.9	37.7	79.0
2017 05/16 19:15	25.7	100.9	262.5	0.0	29.57	34.1	695.8	13.03	-40.0	0	80.3	24.5	31.7	0	113	0	0	0	41.7	37.6	79.0
2017 05/16 19:30	25.4	100.7	288.9	0.0	29.58	34.1	561.7	13.02	-40.0	0	80.3	24.5	31.5	0	113	0	0	0	41.5	37.5	79.0
2017 05/16 19:45	25.6	100.8	260.8	0.0	29.59	34.1	578.7	13.03	-39.9	0	80.6	24.5	31.8	0	114	0	0	0	41.3	37.4	79.0
2017 05/16 20:00	26.1	100.9	204.6	0.0	29.60	33.9	398.5	13.02	-40.0	0	80.8	24.5	31.8	0	114	0	0	0	41.1	37.1	79.0
2017 05/16 20:15	25.9	100.9	271.0	0.0	29.59	33.9	315.7	13.03	-39.9	0	80.6	24.5	31.7	0	114	0	0	0	41.0	37.0	79.0
2017 05/16 20:30	26.1	100.9	227.7	0.0	29.60	33.7	194.2	13.03	-40.0	0	80.7	24.5	31.7	0	114	0	0	0	40.7	36.9	79.0
2017 05/16 20:45	25.9	100.8	244.9	0.0	29.59	33.7	49.2	13.02	-40.1	0	81.1	24.5	31.6	0	114	0	0	0	40.5	36.8	79.0
2017 05/16 21:00	25.7	100.7	247.9	0.0	29.59	33.5	3.4	13.02	-40.0	0	81.1	24.5	31.3	0	114	0	0	0	40.4	36.7	79.0
2017 05/16 21:15	25.5	100.7	220.5	0.0	29.61	33.4	0.0	13.02	-40.0	0	81.1	24.5	31.1	0	114	0	0	0	40.2	36.6	79.0
2017 05/16 21:30	25.0	100.4	230.2	0.0	29.61	33.2	0.0	13.03	-40.0	0	81.3	23.6	30.7	0	114	0	0	0	40.0	36.5	79.0
2017 05/16 21:45	24.9	100.5	270.6	0.0	29.62	33.1	0.0	13.03	-40.0	0	81.3	23.6	30.6	0	114	0	0	0	39.8	36.2	79.0
2017 05/16 22:00	24.5	100.3	237.5	0.0	29.61	32.9	-0.3	13.02	-39.9	0	81.3	23.6	30.4	0	114	0	0	0	39.7	36.1	79.0
2017 05/16 22:15	24.5	100.3	234.4	0.0	29.63	32.6	0.0	13.03	-39.9	0	81.2	23.6	30.6	0	114	0	0	0	39.6	36.1	79.0
2017 05/16 22:30	24.5	100.4	245.2	0.0	29.62	32.4	0.0	13.02	-40.0	0	81.2	23.6	30.7	0	114	0	0	0	39.4	36.0	79.0
2017 05/16 22:45	25.0	100.4	253.9	0.0	29.63	32.2	0.0	13.02	-40.0	0	81.0	23.6	30.6	0	114	0	0	0	39.3	35.8	79.0
2017 05/16 23:00	25.1	100.5	210.7	0.0	29.63	32.0	0.0	13.02	-40.0	0	81.0	23.6	30.8	0	114	0	0	0	39.0	35.8	78.9
2017 05/16 23:15	24.9	100.6	261.9	0.0	29.61	31.8	-0.3	13.02	-40.0	0	80.8	24.5	30.4	0	114	0	0	0	39.0	35.7	78.9
2017 05/16 23:30	25.3	100.5	223.2	0.0	29.62	31.6	0.0	13.03	-40.0	0	80.8	24.5	30.6	0	114	0	0	0	38.8	35.5	78.9
2017 05/16 23:45	25.3	100.7	255.9	0.0	29.63	31.5	-0.3	13.02	-40.0	0	80.9	24.5	30.6	0	114	0	0	0	38.8	35.4	78.9
2017 05/17 00:00	25.6	100.6	253.4	0.0	29.62	31.3	0.0	13.02	-39.9	0	80.9	24.5	30.6	0	114	0	0	0	38.7	35.4	79.0
2017 05/17 00:15	25.4	100.7	237.4	0.0	29.62	31.2	-0.3	13.03	-40.0	0	80.9	24.5	30.6	0	114	0	0	0	38.6	35.3	79.0
2017 05/17 00:30	25.4	100.6	263.1	0.0	29.63	30.9	0.0	13.03	-39.9	0	80.9	24.5	30.5	0	114	0	0	0	38.4	35.3	79.0
2017 05/17 00:45	25.3	100.5	266.0	0.0	29.64	30.7	0.0	13.03	-40.1	0	80.8	24.5	30.5	0	114	0	0	0	38.2	35.2	79.0
2017 05/17 01:00	25.3	100.6	227.6	0.0	29.63	30.5	0.0	13.02	-39.9	0	80.9	24.5	30.5	0	114	0	0	0	38.1	35.1	79.0
2017 05/17 01:15	25.3	100.5	265.4	0.0	29.62	30.5	0.0	13.03	-39.9	0	80.8	24.5	30.5	0	114	0	0	0	38.1	35.0	79.0
2017 05/17 01:30	25.5	100.7	306.2	0.0	29.64	30.3	0.0	13.03	-40.0	0	80.8	24.5	30.6	0	114	0	0	0	37.9	35.0	79.0
2017 05/17 01:45	25.6	100.7	237.0	0.0	29.63	30.1	-0.3	13.03	-40.1	0	80.8	24.5	30.8	0	114	0	0	0	37.8	34.9	79.0
2017 05/17 02:00	25.5	100.7	268.3	0.0	29.63	30.1	-0.3	13.03	-39.9	0	80.8	24.5	30.6	0	114	0	0	0	37.6	34.9	79.0
2017 05/17 02:15	25.6	100.8	285.3	0.0	29.63	29.9	-0.3	13.03	-39.9	0	80.8	24.5	30.7	0	114	0	0	0	37.7	34.8	79.0
2017 05/17 02:30	25.6	100.6	234.4	0.0	29.64	29.7	0.0	13.02	-39.9	0	80.8	24.5	30.7	0	114	0	0	0	37.5	34.8	79.0
2017 05/17 02:45	25.6	100.6	265.1	0.0	29.63	29.7	0.0	13.03	-40.1	0	80.8	24.5	30.7	0	114	0	0	0	37.5	34.7	79.0
2017 05/17 03:00	25.8	100.8	265.6	0.0	29.65	29.5	0.0	13.02	-40.0	0	80.7	24.5	30.7	0	114	0	0	0	37.2	34.7	79.0
2017 05/17 03:15	25.8	100.9	300.6	0.0	29.66	29.5	0.0	13.02	-40.1	0	80.8	24.5	30.7	0	114	0	0	0	37.2	34.5	79.0
2017 05/17 03:30	25.9	100.8	235.2	0.0	29.66	29.3	0.0	13.03	-40.0	0	80.8	24.5	30.9	0	114	0	0	0	37.1	34.5	79.0
2017 05/17 03:45	25.8	100.8	208.7	0.0	29.64	29.3	-0.3	13.03	-40.0	0	80.8	24.5	30.8	0	114	0	0	0	37.1	34.4	79.0
2017 05/17 04:00	25.6	100.8	292.0	0.0	29.65	29.1	0.0	13.02	-39.9	0	80.7	24.5	30.8	0	114	0	0	0	37.0	34.4	79.0
2017 05/17 04:15	25.9	100.8	274.5	0.0	29.67	29.1	-0.3	13.03	-39.9	0	80.7	24.5	30.7	0	114	0	0	0	37.0	34.3	79.0
2017 05/17 04:30	25.9	100.8	194.0	0.0	29.67	29.0	-0.3	13.02	-40.0	0	80.8	24.5	30.8	0	114	0	0	0	36.9	34.3	79.0
2017 05/17 04:45	26.0	101.0	239.3	0.0	29.68	28.9	0.0	13.02	-40.0	0	80.8	24.5	30.9	0	114	0	0	0	36.8	34.3	79.0
2017 05/17 05:00	26.0	100.8	291.6	0.0	29.68	28.9	0.7	13.02	-40.1	0	80.8	24.5	30.8	0	114	0	0	0	36.8	34.3	79.0
2017 05/17 05:15	26.2	100.9	48.5	0.0	29.68	28.7	14.9	13.02	-39.9	0	80.8	24.5	30.9	0	114	0	0	0	36.7	34.2	79.0
2017 05/17 05:30	26.1	100.8	303.6	0.0	29.69	28.7	88.6	13.02	-40.0	0	80.7	25.4	31.5	0	114	0	0	0	36.7	34.2	79.0
2017 05/17 05:45	26.4	101.0	309.0	0.0	29.71	28.7	247.2	13.02	-40.1	0	80.7	25.4	31.8	0	114	0	0	0	36.7	34.1	79.0
2017 05/17 06:00	26.4	100.9	231.5	0.0	29.72	28.7	422.3	13.02	-39.9	0	80.5	25.4	32.1	0	114	0	0	0	36.6	34.1	79.0
2017 05/17 06:15	26.4	101.0	264.8	0.0	29.72	28.6	722.0	13.02	-40.0	0	80.8	25.4	32.3	0	114	0	0	0	36.6	34.1	79.0
2017 05/17 06:30	26.7	101.2	264.9	0.0	29.73	28.4	829.0	13.02	-39.9	0	80.7	25.4	32.7	0	114	0	0	0	36.6	34.1	79.0
2017 05/17 06:45	27.0	101.3	264.9	0.0	29.74	28.4	796.0	13.02	-40.0	0	80.8	25.4	33.3	0	114	0	0	0	36.7	34.1	79.0
2017 05/17 07:00	27.5	101.4	264.8	0.0	29.73	28.4	809.0	13.02	-40.1	0	80.7	26.3	33.4	0	114	0	0	0	36.7	34.1	79.1
2017 05/17 07:15	27.7	101.7	264.8	0.0	29.74	28.3	842.0	13.02	-39.9	0	80.7	26.3	34.0	0	114	0	0	0	36.7	34.2	79.1
2017 05/17 07:30	27.9	101.8	264.8	0.0	29.75	28.2	861.0	13.02	-39.9	0	80.7	27.2	34.8	0	114	0	0	0	36.8	34.3	79.1
2017 05/17 07:45	28.1	101.9	264.9	0.0	29.75	28.2	893.0	13.03	-40.0	0	80.8	27.2	36.6	0	114	0	0	0	36.8	34.4	79.1
2017 05/17 08:00	28.8	102.2	264.9	0.0	29.76	28.2	896.0	13.02	-39.9	0	80.9	27.2	36.8	0	114	0	0	0	36.9	34.5	79.1
2017 05/17 08:15	29.4	102.5	264.8	0.0	29.77	28.2	896.0	13.02	-40.1	0	80.7	28.1	35.9	0	114	0	0	0	37.0	34.7	79.1
2017 05/17 08:30	29.8	102.5	264.8	0.0	29.78	28.2	894.0	13.02	-40.1	0	80.7	28.1	37.2	0	115	0	0	0	37.0	35.0	79.1
2017 05/17 08:45	30.1	102.8	264.9	0.0	29.78	28.2	913.0	13.02	-40.1	0	80.5	29.0	37.0	0	115	0	0	0	37.1	35.2	79.1
2017 05/17 09:00	30.6	103.0	264.8	0.0	29.78	28.2	912.0	13.02	-39.9	0	80.3	29.0	36.9	0	115	0	0	0	37.2	35.4	79.5
2017 05/17 09:15	30.6	102.9	264.8	0.0	29.78	28.4	920.0	13.02	-40.0	0	80.5	29.0	36.7	0	115	0	0	0	37.6	35.7	79.5
2017 05/17 09:30	30.9	103.0	264.8	0.0	29.80	28.4	917.0	13.03	-40.1	0	80.5	29.0	37.1	0	115	0	0	0	37.7	36.0	79.5
2017 05/17 09:45	31.3	102.9	264.9	0.0	29.81	28.7	922.0	13.02	-40.1	0	80.4	29.0	36.8	0	115	0	0	0	38.2	36.5	79.5
2017 05/17 10:00	31.6	103.0	264.8	0.0	29.82	28.7	925.0	13.02	-39.9	0	80.4	29.9	38.0	0	117	0	0	0	38.4	36.8	79.2
2017 05/17 10:15	31.7	102.9	264.8	0.0	29.83	28.9	917.0	13.02	-40.0	0	80.4	29.0	37.6	0	117	0	0	0	38.8	37.0	79.2
2017 05/17 10:30	31.5	103.0	264.9	0.0	29.83	29.1	925.0	13.02	-40.0	0	79.4	30.8	38.6	0	119	0	0	0	39.4	37.4	79.2
2017 05/17 10:45	31.4	102.9	264.8	0.0	29.83	29.3	932.0	13.03	-40.0	0	80.2	31.7	40.2	0	121	0	0	0	39.5	37.8	79.2
2017 05/17 11:00	31.5	103.1	264.9	0.0	29.83	29.4	925.0	13.03	-39.9	0	80.2	31.7	38.6	0	124	0	0	0	40.3	38.4	79.0
2017 05/17 11:15	31.7	102.9	264.9	0.0	29.84	29.7	919.0	13.02	-39.9	0	80.1	32.6	38.8	0	125	0	0	0	41.4	38.9	79.0
2017 05/17 11:30	31.7	103.1	264.9	0.0	29.84	29.9	923.0	13.02	-39.9	0	80.2	32.6	37.8	0	128	0	0	0	42.5	39.5	79.0
2017 05/17 11:45	31.7	103.1	264.8	0.0	29.85	30.1	922.0	13.02	-40.0	0	80.3	30.8	38.5	0	130	0	0	0	43.7	39.9	79.0
2017 05/17 12:00	31.9	103.1	263.3	0.0	29.85	30.3	922.0	13.03	-40.1	0	80.2	32.6	40.4	0	133	0	0	0	44.5	40.4	79.2
2017 05/17 12:15	31.7	103.1	262.4	0.0	29.86	30.5	923.0	13.02	-39.9	0	80.2	33.5	40.9	0	136	0	0	0	45.2	40.5	79.2
2017 05/17 12:30	31.7	102.9	281.7	0.0	29.87	30.9	919.0	13.02	-39.9	0	80.0	32.6	40.5	0	139	0	0	0	46.1	40.8	79.2
2017 05/17 12:45	31.9	102.9	278.7	0.0	29.87	31.2	930.0	13.03	-40.0	0	80.0	34.4	42.7	0	146	0	0	0	47.0	41.1	79.2
2017 05/17 13:00	31.7	103.1	250.7	0.0	29.88	31.4	920.0	13.02	-40.0	0	79.8	35.3	42.6	0	150	0	0	0	47.7	41.3	79.0
2017 05/17 13:15	32.0	103.0	268.2	0.0	29.88	31.6	919.0	13.03	-39.9	0	79.9	33.5	40.0	0	153	0	0	0	47.9	41.4	79.0
2017 05/17 13:30	31.7	102.9	270.4	0.0	29.89	32.0	916.0	13.03	-39.9	0	79.8	33.5	40.5	0	156	0	0	0	48.4	41.6	79.0
2017 05/17 13:45	32.0	102.9	273.4	0.0	29.89	32.2	895.0	13.03	-40.0	0	79.8	33.5	41.7	0	159	0	0	0	48.6	41.7	79.0
2017 05/17 14:00	31.7	103.1	276.3	0.0	29.90	32.4	906.0	13.03	-40.1	0	79.6	35.3	42.1	0	162	0	0	0	48.8	41.7	79.2
2017 05/17 14:15	31.9	103.0	260.2	0.0	29.90	32.8	920.0	13.03	-40.0	0	79.5	36.2	43.2	0	164	0	0	0	48.9	41.7	79.2
2017 05/17 14:30	32.0	103.0	252.1	0.0	29.90	33.1	891.0	13.03	-40.0	0	79.6	36.2	43.1	0	167	0	0	0	49.2	41.9	79.2
2017 05/17 14:45	32.0	102.9	264.3	0.0	29.91	33.3	918.0	13.04	-40.0	0	79.5	35.3	43.4	0	170	0	0	0	49.4	41.9	79.2
2017 05/17 15:00	32.1	103.1	267.9	0.0	29.91	33.5	903.0	13.03	-40.0	0	79.6	33.5	41.8	0	172	0	0	0	49.6	41.9	79.2
2017 05/17 15:15	31.9	103.0	283.4	0.0	29.92	33.8	910.0	13.03	-40.0	0	79.4	35.3	42.0	0	173	0	0	0	49.6	41.9	79.2
2017 05/17 15:30	32.6	103.0	261.2	0.0	29.92	34.1	908.0	13.03	-40.1	0	79.5	34.4	40.8	0	175	0	0	0	49.7	42.0	79.2
2017 05/17 15:45	33.5	103.0	297.4	0.0	29.92	34.3	925.0	13.04	-39.9	0	79.4	34.4	40.7	0	177	0	0	0	50.1	42.1	79.2
2017 05/17 16:00	32.8	102.9	274.4	0.0	29.91	34.5	899.0	13.03	-40.0	0	79.4	33.5	40.4	0	179	0	0	0	50.2	42.1	79.3
2017 05/17 16:15	32.0	103.0	228.7	0.0	29.92	34.7	899.0	13.03	-40.1	0	79.4	33.5	41.4	0	180	0	0	0	50.3	42.1	79.3
2017 05/17 16:30	32.7	103.0	276.7	0.0	29.93	34.9	886.0	13.03	-40.0	0	79.3	33.5	41.1	0	181	0	0	0	50.5	42.1	79.3
2017 05/17 16:45	33.1	102.9	289.2	0.0	29.94	35.3	846.0	13.02	-40.0	0	79.2	33.5	40.9	0	182	0	0	0	50.7	42.2	79.3
2017 05/17 17:00	33.3	103.0	277.1	0.0	29.94	35.5	899.0	13.03	-40.0	0	79.2	33.5	40.2	0	183	0	0	0	51.0	42.2	79.4
2017 05/17 17:15	33.1	102.8	253.1	0.0	29.94	35.6	903.0	13.04	-40.0	0	79.3	32.6	39.9	0	183	0	0	0	50.7	42.1	79.4
2017 05/17 17:30	32.7	102.9	265.5	0.0	29.95	35.9	878.0	13.02	-39.9	0	79.2	32.6	39.9	0	184	0	0	0	50.5	42.0	79.4
2017 05/17 17:45	32.8	103.0	271.8	0.0	29.96	36.0	844.0	13.04	-40.1	0	79.1	32.6	39.0	0	185	0	0	0	50.2	41.9	79.4
2017 05/17 18:00	32.6	103.0	256.5	0.0	29.96	36.2	814.0	13.04	-40.0	0	79.2	31.7	38.7	0	185	0	0	0	49.8	41.7	79.3
2017 05/17 18:15	32.3	103.1	281.5	0.0	29.96	36.4	840.0	13.03	-40.0	0	79.1	31.7	39.0	0	185	0	0	0	49.5	41.5	79.3
2017 05/17 18:30	32.3	103.0	297.6	0.0	29.96	36.6	806.0	13.03	-40.0	0	79.0	31.7	38.2	0	185	0	0	0	49.0	41.3	79.3
2017 05/17 18:45	32.3	103.0	266.2	0.0	29.96	36.7	752.0	13.03	-39.9	0	79.0	31.7	37.9	0	185	0	0	0	48.7	41.2	79.3
2017 05/17 19:00	32.2	103.0	269.7	0.0	29.96	36.9	714.0	13.03	-39.9	0	79.0	30.8	37.7	0	185	0	0	0	48.4	41.0	79.2
2017 05/17 19:15	32.0	103.1	299.4	0.0	29.96	37.0	719.0	13.04	-40.0	0	78.9	30.8	37.6	0	185	0	0	0	48.2	40.8	79.2
2017 05/17 19:30	32.0	103.1	282.2	0.0	29.96	37.1	690.0	13.02	-40.0	0	78.9	30.8	37.6	0	185	0	0	0	47.7	40.6	79.2
2017 05/17 19:45	32.0	103.2	279.6	0.0	29.96	37.1	622.1	12.99	-40.0	0	78.9	30.8	37.5	0	185	0	0	0	47.4	40.5	79.2
2017 05/17 20:00	32.1	103.1	268.9	0.0	29.97	37.2	519.3	12.99	-40.0	0	78.8	30.8	37.3	0	185	0	0	0	47.0	40.3	79.2
2017 05/17 20:15	31.8	103.2	220.2	0.0	29.97	37.3	368.9	12.99	-40.0	0	78.8	30.8	37.1	0	185	0	0	0	46.8	40.2	79.2
2017 05/17 20:30	32.0	103.1	212.2	0.0	29.97	37.3	181.6	12.99	-40.0	0	78.7	30.8	36.9	0	185	0	0	0	46.6	39.9	79.2
2017 05/17 20:45	31.5	103.2	292.3	0.0	29.97	37.3	47.2	13.01	-39.9	0	78.7	30.8	36.7	0	185	0	0	0	46.2	39.8	79.2
2017 05/17 21:00	32.0	103.1	288.4	0.0	29.97	37.3	6.8	13.02	-40.1	0	78.7	30.8	36.4	0	185	0	0	0	45.9	39.7	79.2
2017 05/17 21:15	31.6	103.2	311.2	0.0	29.98	37.3	0.3	13.02	-39.9	0	78.6	30.8	36.4	0	185	0	0	0	45.7	39.6	79.2
2017 05/17 21:30	31.7	103.2	302.8	0.0	29.97	37.3	-0.3	13.02	-40.0	0	78.6	30.8	36.4	0	185	0	0	0	45.5	39.5	79.2
2017 05/17 21:45	31.7	103.2	314.2	0.0	29.97	37.3	0.0	13.02	-40.0	0	78.7	29.9	36.4	0	185	0	0	0	45.2	39.4	79.2
2017 05/17 22:00	32.0	103.3	316.8	0.0	29.97	37.3	-0.3	13.02	-40.1	0	78.7	29.9	36.3	0	185	0	0	0	45.0	39.3	79.2
2017 05/17 22:15	31.7	103.2	315.4	0.0	29.97	37.3	0.0	13.01	-40.0	0	78.5	29.9	36.2	0	185	0	0	0	44.9	39.2	79.2
2017 05/17 22:30	31.7	103.1	309.0	0.0	29.97	37.3	0.0	13.02	-40.0	0	78.6	29.9	35.8	0	185	0	0	0	44.5	39.0	79.2
2017 05/17 22:45	31.4	103.3	337.2	0.0	29.96	37.2	0.0	13.02	-40.1	0	78.5	29.9	35.7	0	185	0	0	0	44.1	38.9	79.2
2017 05/17 23:00	31.1	103.2	333.6	0.0	29.96	37.2	-0.3	13.02	-40.0	0	78.6	29.0	35.8	0	185	0	0	0	43.7	38.8	79.2
2017 05/17 23:15	30.9	103.2	312.1	0.0	29.96	37.1	-0.3	13.02	-40.0	0	78.6	29.0	35.3	0	185	0	0	0	43.4	38.7	79.2
2017 05/17 23:30	30.9	103.1	308.2	0.0	29.96	37.1	-0.3	13.02	-40.0	0	78.6	29.0	35.0	0	185	0	0	0	43.1	38.5	79.2
2017 05/17 23:45	31.0	103.3	318.2	0.0	29.95	37.0	0.0	13.02	-40.0	0	78.6	29.0	34.9	0	185	0	0	0	42.9	38.4	79.2
2017 05/18 00:00	30.6	103.2	304.7	0.0	29.95	37.0	0.0	13.03	-40.1	0	78.6	29.0	34.8	0	185	0	0	0	42.6	38.1	79.2
2017 05/18 00:15	30.4	103.3	317.1	0.0	29.95	36.9	0.0	13.02	-39.9	0	78.6	29.0	34.8	0	185	0	0	0	42.4	38.1	79.2
2017 05/18 00:30	30.1	103.4	305.8	0.0	29.95	36.8	0.0	13.02	-40.0	0	78.6	28.1	34.5	0	185	0	0	0	42.1	37.9	79.2
2017 05/18 00:45	30.3	103.3	293.8	0.0	29.95	36.6	-0.3	13.02	-40.0	0	78.6	29.0	34.5	0	185	0	0	0	41.7	37.8	79.2
2017 05/18 01:00	30.3	103.4	269.5	0.0	29.95	36.6	-0.3	13.01	-40.0	0	78.5	29.0	34.5	0	185	0	0	0	41.5	37.7	79.2
2017 05/18 01:15	29.8	103.3	261.3	0.0	29.94	36.5	0.0	13.02	-40.0	0	78.5	29.0	34.4	0	185	0	0	0	41.4	37.7	79.2
2017 05/18 01:30	29.9	103.2	269.5	0.0	29.95	36.4	0.0	13.02	-40.0	0	78.5	29.0	34.4	0	185	0	0	0	41.3	37.6	79.2
2017 05/18 01:45	29.6	103.3	275.1	0.0	29.95	36.3	-0.3	13.02	-40.0	0	78.5	29.0	34.6	0	185	0	0	0	41.2	37.6	79.2
2017 05/18 02:00	29.6	103.2	268.2	0.0	29.95	36.2	0.0	13.02	-40.0	0	78.5	28.1	34.4	0	185	0	0	0	41.1	37.6	79.2
2017 05/18 02:15	29.9	103.1	278.8	0.0	29.95	36.1	0.0	13.02	-39.9	0	78.5	28.1	34.3	0	185	0	0	0	41.1	37.5	79.2
2017 05/18 02:30	29.6	103.1	247.1	0.0	29.95	36.0	0.0	13.02	-40.1	0	78.5	28.1	34.3	0	185	0	0	0	41.0	37.5	79.2
2017 05/18 02:45	29.4	103.2	298.2	0.0	29.94	35.9	0.0	13.02	-40.0	0	78.5	27.2	34.2	0	185	0	0	0	40.8	37.4	79.2
2017 05/18 03:00	30.1	103.0	298.2	0.0	29.94	35.8	0.0	13.02	-40.0	0	78.5	27.2	33.4	0	185	0	0	0	40.7	37.4	79.2
2017 05/18 03:15	30.6	102.9	298.2	0.0	29.94	35.6	0.0	13.02	-40.0	0	78.6	27.2	33.2	0	185	0	0	0	40.6	37.4	79.2
2017 05/18 03:30	31.0	102.3	298.2	0.0	29.93	35.6	0.0	13.02	-40.1	0	78.5	27.2	33.2	0	185	0	0	0	40.5	37.4	79.2
2017 05/18 03:45	30.9	101.5	298.2	0.0	29.92	35.5	0.0	13.02	-40.0	0	78.5	27.2	33.0	0	185	0	0	0	40.4	37.2	79.2
2017 05/18 04:00	31.6	98.9	221.6	0.0	29.92	35.4	-0.3	13.02	-40.0	0	78.5	27.2	32.6	0	185	0	0	0	40.4	37.2	79.1
2017 05/18 04:15	31.8	99.1	193.3	0.0	29.91	35.2	-0.3	13.02	-40.0	0	78.4	27.2	32.4	0	185	0	0	0	40.3	37.1	79.1
2017 05/18 04:30	31.7	99.2	169.1	0.0	29.91	35.2	0.0	13.02	-40.0	0	78.5	26.3	32.4	0	186	0	0	0	40.2	37.1	79.1
2017 05/18 04:45	31.8	95.7	142.8	0.0	29.91	34.9	0.0	13.02	-40.0	0	78.5	25.4	32.2	0	186	0	0	0	40.0	37.0	79.1
2017 05/18 05:00	32.0	92.9	122.9	0.0	29.91	34.9	3.1	13.02	-40.0	0	78.5	26.3	31.5	0	186	0	0	0	39.9	37.0	79.1
2017 05/18 05:15	32.3	92.5	102.6	0.0	29.92	34.8	30.6	13.02	-40.0	0	78.5	26.3	31.1	0	186	0	0	0	39.8	36.9	79.1
2017 05/18 05:30	33.0	90.2	139.0	0.0	29.92	34.8	203.0	13.02	-39.9	0	78.5	27.2	29.9	0	186	0	0	0	39.8	36.9	79.1
2017 05/18 05:45	33.7	94.2	145.3	0.0	29.92	34.6	471.8	13.02	-39.9	0	78.5	27.2	30.4	0	186	0	0	0	39.6	36.8	79.1
2017 05/18 06:00	33.9	91.6	230.3	0.0	29.93	34.5	634.7	13.02	-40.0	0	78.4	28.1	29.5	0	186	0	0	0	39.4	36.7	79.1
2017 05/18 06:15	34.4	89.8	215.5	0.0	29.93	34.3	722.0	13.02	-40.0	0	78.4	29.0	30.2	0	186	0	0	0	39.2	36.6	79.1
2017 05/18 06:30	34.0	91.4	216.5	0.0	29.93	34.3	757.0	13.02	-40.1	0	78.1	30.8	30.7	0	186	0	0	0	38.9	36.6	79.1
2017 05/18 06:45	34.0	94.4	211.3	0.0	29.93	34.2	779.0	13.01	-39.9	0	78.2	32.6	30.7	0	186	0	0	0	38.8	36.5	79.1
2017 05/18 07:00	34.7	93.3	263.2	0.0	29.93	34.1	811.0	13.02	-40.0	0	78.3	32.6	31.5	0	186	0	0	0	38.6	36.3	79.1
2017 05/18 07:15	35.0	89.3	216.3	0.0	29.94	34.1	825.0	13.02	-40.0	0	78.1	33.5	32.1	0	186	0	0	0	38.5	36.3	79.1
2017 05/18 07:30	35.8	90.8	199.6	0.0	29.94	34.1	837.0	13.02	-39.9	0	77.9	37.1	33.3	0	186	0	0	0	38.6	36.3	79.1
2017 05/18 07:45	36.6	86.6	286.0	0.0	29.95	34.1	846.0	13.02	-40.0	0	77.9	38.0	35.5	0	186	0	0	0	38.8	36.2	79.1
2017 05/18 08:00	36.4	80.1	139.7	0.0	29.95	34.1	842.0	13.02	-40.0	0	78.1	38.0	36.6	0	186	0	0	0	39.0	36.2	79.2
2017 05/18 08:15	36.6	84.1	131.2	0.0	29.96	34.1	855.0	13.02	-40.1	0	78.1	37.1	37.0	0	186	0	0	0	39.2	36.3	79.2
2017 05/18 08:30	38.1	70.9	140.5	0.0	29.96	34.3	855.0	13.02	-40.0	0	78.0	39.8	38.8	0	186	0	0	0	39.4	36.6	79.2
2017 05/18 08:45	39.1	72.0	199.9	0.0	29.95	34.3	863.0	13.02	-40.0	0	78.0	40.7	41.2	0	186	0	0	0	40.3	36.9	79.2
2017 05/18 09:00	38.7	88.0	39.5	0.0	29.97	34.5	866.0	13.02	-40.0	0	78.2	39.8	42.7	0	186	0	0	0	41.0	37.4	79.3
2017 05/18 09:15	38.4	87.7	103.8	0.0	29.97	34.5	869.0	13.02	-40.1	0	78.4	39.8	43.6	0	186	0	0	0	41.6	37.9	79.3
2017 05/18 09:30	38.6	77.9	68.0	0.0	29.97	34.7	871.0	13.02	-40.0	0	78.1	41.6	44.2	0	186	0	0	0	42.6	38.6	79.3
2017 05/18 09:45	39.7	66.4	210.7	0.0	29.98	34.9	873.0	13.02	-40.0	0	78.3	41.6	45.6	0	186	0	0	0	43.7	39.3	79.3
2017 05/18 10:00	40.1	71.5	236.1	0.0	29.98	35.1	875.0	13.02	-40.0	0	78.4	42.5	44.8	0	186	0	0	0	44.9	39.9	79.2
2017 05/18 10:15	40.5	72.8	246.9	0.0	29.98	35.3	877.0	13.02	-40.0	0	78.3	43.4	46.1	0	186	0	0	0	46.4	40.8	79.2
2017 05/18 10:30	41.6	69.6	201.9	0.0	29.99	35.5	879.0	13.02	-39.9	0	78.4	43.4	46.8	0	186	0	0	0	47.5	41.4	79.2
2017 05/18 10:45	42.8	63.8	255.5	0.0	29.99	35.7	880.0	13.02	-40.0	0	78.3	44.3	48.5	0	186	0	0	0	48.9	42.3	79.2
2017 05/18 11:00	43.1	60.3	210.5	0.0	29.99	36.0	882.0	13.02	-40.0	0	78.3	46.1	49.5	0	186	0	0	0	50.6	43.3	79.1
2017 05/18 11:15	43.0	51.2	221.0	0.0	30.00	36.2	883.0	13.02	-40.1	0	78.3	47.0	50.5	0	186	0	0	0	52.5	44.2	79.1
2017 05/18 11:30	44.8	48.6	214.4	0.0	30.00	36.4	883.0	13.02	-40.0	0	78.1	47.9	51.4	0	186	0	0	0	53.8	44.8	79.1
2017 05/18 11:45	45.8	46.0	140.9	0.0	30.01	36.6	884.0	13.02	-39.9	0	78.0	48.8	52.8	0	186	0	0	0	55.4	45.5	79.1
2017 05/18 12:00	44.9	49.5	219.5	0.0	30.01	37.0	884.0	13.02	-40.0	0	77.7	52.4	53.0	0	186	0	0	0	57.4	46.4	79.0
2017 05/18 12:15	45.6	45.5	250.0	0.0	30.02	37.3	884.0	13.02	-40.0	0	77.7	52.4	54.0	0	186	0	0	0	59.1	47.0	79.0
2017 05/18 12:30	45.8	47.3	216.7	0.0	30.02	37.5	884.0	13.02	-39.9	0	77.6	52.4	54.7	0	186	0	0	0	60.0	47.5	79.0
2017 05/18 12:45	47.2	51.6	210.9	0.0	30.02	37.8	884.0	13.02	-39.9	0	77.5	53.3	55.7	0	186	0	0	0	61.2	48.0	79.0
2017 05/18 13:00	46.5	48.3	231.0	0.0	30.02	38.1	883.0	13.02	-39.9	0	77.8	53.3	56.2	0	186	0	0	0	62.1	48.5	78.9
2017 05/18 13:15	48.0	42.1	261.7	0.0	30.02	38.4	879.0	13.02	-40.0	0	77.7	52.4	56.1	0	186	0	0	0	63.2	48.9	78.9
2017 05/18 13:30	47.5	36.5	232.2	0.0	30.03	38.7	882.0	13.02	-40.0	0	77.7	52.4	56.4	0	186	0	0	0	63.7	49.2	78.9
2017 05/18 13:45	48.2	38.9	233.1	0.0	30.03	39.0	882.0	13.02	-39.9	0	77.6	53.3	57.5	0	186	0	0	0	64.2	49.5	78.9
2017 05/18 14:00	48.1	39.1	237.3	0.0	30.03	39.4	888.0	13.02	-40.0	0	77.4	54.2	57.8	0	186	0	0	0	64.9	49.6	78.9
2017 05/18 14:15	48.5	41.7	225.2	0.0	30.03	39.6	882.0	13.02	-40.0	0	77.4	54.2	57.9	0	186	0	0	0	65.0	49.6	78.9
2017 05/18 14:30	49.1	41.1	219.8	0.0	30.04	40.0	887.0	13.03	-40.0	0	77.3	55.1	58.3	0	186	0	0	0	65.1	49.5	78.9
2017 05/18 14:45	50.2	45.1	244.2	0.0	30.04	40.3	902.0	13.02	-40.0	0	77.3	55.1	58.8	0	186	0	0	0	65.6	49.5	78.9
2017 05/18 15:00	49.8	51.6	231.5	0.0	30.04	40.7	908.0	13.02	-40.0	0	77.2	55.1	60.9	0	186	0	0	0	65.8	49.4	78.9
2017 05/18 15:15	49.2	52.2	221.5	0.0	30.04	41.0	904.0	13.02	-40.0	0	77.1	56.0	61.0	0	186	0	0	0	66.4	49.5	78.9
2017 05/18 15:30	49.9	54.8	259.5	0.0	30.04	41.4	893.0	13.02	-40.0	0	77.2	54.2	59.5	0	186	0	0	0	66.8	49.5	78.9
2017 05/18 15:45	50.5	53.5	231.0	0.0	30.04	41.7	897.0	13.02	-40.0	0	77.1	55.1	59.8	0	186	0	0	0	67.2	49.5	78.9
2017 05/18 16:00	51.0	53.1	241.5	0.0	30.05	42.1	893.0	13.02	-39.9	0	77.1	55.1	60.3	0	186	0	0	0	67.5	49.5	78.8
2017 05/18 16:15	50.4	55.2	278.5	0.0	30.05	42.4	891.0	13.02	-40.0	0	76.8	54.2	60.1	0	186	0	0	0	68.1	49.5	78.8
2017 05/18 16:30	51.4	55.3	307.7	0.0	30.05	42.8	894.0	13.02	-39.9	0	76.9	54.2	60.6	0	186	0	0	0	68.4	49.6	78.8
2017 05/18 16:45	50.8	56.9	275.1	0.0	30.06	43.1	909.0	13.02	-39.9	0	76.6	53.3	57.9	0	186	0	0	0	69.0	49.6	78.8
2017 05/18 17:00	50.8	59.0	295.1	0.0	30.06	43.5	922.0	13.02	-40.0	0	76.6	53.3	59.2	0	186	0	0	0	69.1	49.7	78.8
2017 05/18 17:15	49.8	59.3	233.2	0.0	30.07	44.0	953.0	13.03	-40.0	0	76.3	54.2	59.3	0	186	0	0	0	69.5	49.8	78.8
2017 05/18 17:30	51.1	57.8	287.1	0.0	30.07	44.3	962.0	13.02	-40.0	0	76.2	53.3	60.0	0	186	0	0	0	69.9	49.8	78.8
2017 05/18 17:45	51.5	56.8	210.4	0.0	30.07	44.7	962.0	13.04	-39.9	0	76.7	52.4	60.0	0	186	0	0	0	70.2	50.0	78.8
2017 05/18 18:00	50.4	60.5	261.0	0.0	30.08	45.1	957.0	13.02	-40.0	0	76.5	51.5	58.6	0	186	0	0	0	70.3	50.0	78.9
2017 05/18 18:15	48.8	65.0	263.7	0.0	30.08	45.6	919.0	13.02	-40.1	0	76.5	49.7	55.5	0	186	0	0	0	70.1	49.8	78.9
2017 05/18 18:30	47.8	66.3	279.0	0.0	30.09	45.9	908.0	13.04	-40.0	0	76.5	48.8	54.7	0	186	0	0	0	69.6	49.8	78.9
2017 05/18 18:45	47.6	65.4	264.2	0.0	30.08	46.4	880.0	13.04	-40.0	0	76.2	48.8	52.6	0	186	0	0	0	69.0	49.6	78.9
2017 05/18 19:00	47.2	69.4	228.7	0.0	30.09	46.7	868.0	13.03	-40.0	0	76.6	47.9	50.3	0	186	0	0	0	68.3	49.5	79.0
2017 05/18 19:15	47.2	72.9	262.8	0.0	30.09	47.1	930.0	13.03	-39.9	0	76.5	47.0	52.1	0	186	0	0	0	67.8	49.4	79.0
2017 05/18 19:30	46.1	74.4	296.0	0.0	30.09	47.4	848.0	13.02	-40.0	0	76.3	46.1	50.6	0	186	0	0	0	67.2	49.3	79.0
2017 05/18 19:45	45.4	75.7	294.6	0.0	30.10	47.8	805.0	13.02	-39.9	0	76.4	44.3	49.8	0	186	0	0	0	66.4	49.0	79.0
2017 05/18 20:00	44.5	78.4	290.4	0.0	30.10	48.1	719.0	13.03	-40.0	0	76.5	43.4	49.0	0	186	0	0	0	65.5	48.7	79.0
2017 05/18 20:15	44.0	81.3	288.9	0.0	30.10	48.4	554.0	13.02	-39.9	0	76.4	42.5	48.4	0	186	0	0	0	64.7	48.5	79.0
2017 05/18 20:30	43.8	83.3	297.4	0.0	30.11	48.6	378.6	13.02	-39.9	0	76.3	42.5	47.8	0	186	0	0	0	64.1	48.3	79.0
2017 05/18 20:45	43.5	84.5	300.8	0.0	30.11	48.8	152.0	13.02	-40.0	0	76.2	41.6	47.2	0	186	0	0	0	63.3	47.9	79.0
2017 05/18 21:00	43.2	86.9	294.3	0.0	30.11	49.0	19.0	13.02	-39.9	0	76.5	40.7	46.9	0	186	0	0	0	62.5	47.7	79.1
2017 05/18 21:15	43.0	87.6	296.2	0.0	30.12	49.2	2.7	13.02	-40.0	0	76.4	40.7	46.9	0	186	0	0	0	61.8	47.4	79.1
2017 05/18 21:30	43.0	88.1	287.9	0.0	30.12	49.4	0.3	13.04	-40.0	0	76.4	39.8	46.8	0	186	0	0	0	61.2	47.1	79.1
2017 05/18 21:45	42.7	89.8	288.1	0.0	30.12	49.4	0.0	13.03	-40.0	0	76.3	39.8	46.6	0	186	0	0	0	60.4	46.9	79.1
2017 05/18 22:00	42.4	91.3	286.7	0.0	30.13	49.6	0.0	13.02	-40.0	0	76.2	39.8	46.0	0	186	0	0	0	59.7	46.7	79.2
2017 05/18 22:15	41.7	93.4	278.7	0.0	30.13	49.6	-0.3	13.02	-40.0	0	76.4	38.9	45.8	0	186	0	0	0	59.1	46.5	79.2
2017 05/18 22:30	41.6	93.4	273.8	0.0	30.13	49.6	-0.3	13.03	-40.0	0	76.2	38.9	45.2	0	186	0	0	0	58.5	46.2	79.2
2017 05/18 22:45	41.5	93.1	276.4	0.0	30.13	49.7	0.0	13.02	-40.0	0	76.4	38.9	44.4	0	186	0	0	0	57.9	46.0	79.2
2017 05/18 23:00	41.7	89.9	272.9	0.0	30.13	49.7	-0.3	13.03	-39.9	0	76.2	38.9	43.8	0	186	0	0	0	57.3	45.8	79.2
2017 05/18 23:15	42.1	84.9	271.0	0.0	30.13	49.6	0.0	13.04	-40.0	0	76.2	38.9	42.9	0	186	0	0	0	56.7	45.7	79.2
2017 05/18 23:30	42.0	85.6	267.7	0.0	30.13	49.6	0.0	13.03	-39.9	0	76.2	38.9	42.9	0	186	0	0	0	56.2	45.5	79.2
2017 05/18 23:45	41.7	84.4	256.7	0.0	30.13	49.6	-0.3	13.03	-40.0	0	76.2	38.9	42.2	0	186	0	0	0	55.6	45.2	79.2
2017 05/19 00:00	42.6	77.5	257.1	0.0	30.13	49.5	-0.3	13.03	-40.0	0	76.2	38.0	39.9	0	186	0	0	0	54.9	45.0	79.1
2017 05/19 00:15	42.7	73.1	245.5	0.0	30.13	49.4	-0.3	13.03	-40.0	0	76.1	38.0	39.3	0	186	0	0	0	54.2	44.8	79.1
2017 05/19 00:30	42.4	69.7	239.9	0.0	30.13	49.4	-0.3	13.03	-40.0	0	76.2	38.0	38.4	0	186	0	0	0	53.8	44.7	79.1
2017 05/19 00:45	42.6	68.5	233.9	0.0	30.12	49.2	0.0	13.03	-39.9	0	76.1	38.0	37.6	0	186	0	0	0	53.2	44.4	79.1
2017 05/19 01:00	42.7	69.9	241.7	0.0	30.12	49.2	0.0	13.02	-40.1	0	76.1	38.0	37.1	0	186	0	0	0	52.8	44.2	79.2
2017 05/19 01:15	42.6	80.7	233.5	0.0	30.12	49.0	0.0	13.03	-40.0	0	76.1	38.0	36.8	0	186	0	0	0	52.1	44.0	79.2
2017 05/19 01:30	42.6	80.1	238.9	0.0	30.12	48.9	0.0	13.02	-40.0	0	76.2	38.9	36.6	0	186	0	0	0	51.6	43.8	79.2
2017 05/19 01:45	42.4	81.2	239.3	0.0	30.11	48.8	0.0	13.02	-40.0	0	76.1	38.9	36.2	0	186	0	0	0	51.2	43.7	79.2
2017 05/19 02:00	42.7	79.0	228.1	0.0	30.11	48.6	-0.3	13.03	-40.0	0	75.9	38.9	35.7	0	186	0	0	0	50.6	43.4	79.1
2017 05/19 02:15	42.5	79.0	225.1	0.0	30.11	48.5	0.0	13.02	-39.9	0	76.0	38.9	35.1	0	186	0	0	0	50.2	43.2	79.1
2017 05/19 02:30	42.8	72.9	245.2	0.0	30.10	48.3	0.0	13.02	-39.9	0	76.2	38.9	34.8	0	186	0	0	0	49.8	43.1	79.1
2017 05/19 02:45	42.9	69.8	253.0	0.0	30.10	48.2	0.0	13.04	-39.9	0	76.2	38.9	34.2	0	186	0	0	0	49.4	42.9	79.1
2017 05/19 03:00	42.9	65.1	254.0	0.0	30.10	48.0	-0.3	13.04	-40.1	0	76.2	38.9	34.6	0	186	0	0	0	48.9	42.7	79.0
2017 05/19 03:15	42.9	64.1	258.1	0.0	30.09	47.9	-0.3	13.03	-39.9	0	76.0	38.9	34.2	0	186	0	0	0	48.6	42.5	79.0
2017 05/19 03:30	43.1	63.7	255.2	0.0	30.09	47.8	0.0	13.03	-40.0	0	76.0	38.9	33.9	0	186	0	0	0	48.3	42.4	79.0
2017 05/19 03:45	42.9	66.0	250.6	0.0	30.09	47.5	0.0	13.03	-40.0	0	76.0	38.9	33.4	0	186	0	0	0	47.9	42.2	79.0
2017 05/19 04:00	42.6	71.8	258.0	0.0	30.09	47.4	0.0	13.02	-40.0	0	76.2	38.0	33.1	0	186	0	0	0	47.5	42.0	79.0
2017 05/19 04:15	42.6	69.3	272.7	0.0	30.09	47.4	-0.3	13.02	-40.0	0	76.3	38.0	33.0	0	186	0	0	0	47.1	41.9	79.0
2017 05/19 04:30	42.7	69.4	267.4	0.0	30.08	47.2	0.0	13.03	-40.0	0	76.2	37.1	32.7	0	186	0	0	0	46.8	41.7	79.0
2017 05/19 04:45	42.6	67.8	258.2	0.0	30.08	47.0	0.0	13.02	-40.0	0	76.0	38.9	32.4	0	186	0	0	0	46.6	41.5	79.0
2017 05/19 05:00	42.6	70.3	244.7	0.0	30.08	46.8	2.7	13.02	-40.0	0	76.1	38.0	32.0	0	186	0	0	0	46.1	41.4	79.0
2017 05/19 05:15	42.7	66.4	289.4	0.0	30.08	46.7	29.5	13.03	-40.0	0	76.3	38.9	31.7	0	186	0	0	0	45.9	41.2	79.0
2017 05/19 05:30	43.1	54.8	337.5	0.0	30.08	46.5	196.8	13.02	-40.0	0	76.0	38.9	31.7	0	186	0	0	0	45.7	41.2	79.0
2017 05/19 05:45	43.0	62.6	0.1	0.0	30.08	46.4	451.6	13.03	-40.1	0	75.9	38.9	32.3	0	186	0	0	0	45.3	41.0	79.0
2017 05/19 06:00	43.6	65.2	1.0	0.0	30.08	46.3	611.8	13.02	-40.1	0	75.9	41.6	32.0	0	186	0	0	0	45.0	40.8	79.0
2017 05/19 06:15	43.7	83.7	3.2	0.0	30.08	46.1	693.6	13.02	-40.0	0	76.0	42.5	31.8	0	186	0	0	0	44.9	40.6	79.0
2017 05/19 06:30	44.3	85.7	23.5	0.0	30.08	46.0	737.0	13.02	-40.0	0	75.6	44.3	32.6	0	186	0	0	0	44.7	40.6	79.0
2017 05/19 06:45	44.7	86.2	0.6	0.0	30.09	45.9	760.0	13.02	-40.0	0	75.6	47.0	33.0	0	186	0	0	0	44.4	40.4	79.0
2017 05/19 07:00	44.7	85.6	2.8	0.0	30.09	45.7	779.0	13.02	-40.0	0	75.8	46.1	34.0	0	186	0	0	0	44.3	40.3	79.1
2017 05/19 07:15	44.7	84.4	3.1	0.0	30.08	45.7	794.0	13.03	-39.9	0	75.9	47.0	35.1	0	186	0	0	0	44.3	40.3	79.1
2017 05/19 07:30	44.5	83.7	1.8	0.0	30.09	45.7	780.0	13.02	-40.0	0	75.6	48.8	36.3	0	186	0	0	0	44.4	40.3	79.1
2017 05/19 07:45	45.1	80.8	3.2	0.0	30.09	45.6	812.0	13.02	-40.0	0	75.6	48.8	37.9	0	186	0	0	0	44.7	40.4	79.1
2017 05/19 08:00	46.2	78.7	35.3	0.0	30.09	45.6	818.0	13.02	-40.0	0	75.4	48.8	40.4	0	186	0	0	0	44.9	40.4	79.1
2017 05/19 08:15	47.5	76.8	83.8	0.0	30.09	45.6	823.0	13.02	-40.0	0	75.7	48.8	41.7	0	186	0	0	0	45.2	40.4	79.1
2017 05/19 08:30	47.2	79.7	89.2	0.0	30.09	45.7	829.0	13.02	-40.1	0	75.5	50.6	42.7	0	186	0	0	0	45.7	40.6	79.1
2017 05/19 08:45	46.4	79.5	46.8	0.0	30.10	45.7	792.0	13.03	-40.0	0	75.5	51.5	45.0	0	186	0	0	0	46.6	41.0	79.1
2017 05/19 09:00	46.7	74.8	72.0	0.0	30.10	45.7	842.0	13.02	-40.1	0	75.7	48.8	47.4	0	186	0	0	0	47.5	41.4	79.1
2017 05/19 09:15	49.5	71.0	101.2	0.0	30.10	45.9	852.0	13.03	-40.1	0	75.7	49.7	46.5	0	186	0	0	0	48.6	42.1	79.1
2017 05/19 09:30	49.7	70.5	98.1	0.0	30.10	45.9	835.0	13.02	-40.0	0	75.7	50.6	47.8	0	186	0	0	0	48.9	42.4	79.1
2017 05/19 09:45	50.3	70.3	73.9	0.0	30.11	46.1	863.0	13.03	-39.9	0	76.0	49.7	51.4	0	186	0	0	0	49.8	43.0	79.1
2017 05/19 10:00	50.5	68.6	175.5	0.0	30.11	46.1	844.0	13.03	-40.0	0	75.8	50.6	51.7	0	186	0	0	0	51.3	43.8	79.0
2017 05/19 10:15	48.4	69.4	216.1	0.0	30.11	46.3	869.0	13.02	-39.9	0	75.7	49.7	52.1	0	186	0	0	0	52.8	44.7	79.0
2017 05/19 10:30	48.2	67.8	230.3	0.0	30.11	46.5	868.0	13.02	-40.0	0	75.6	51.5	51.5	0	186	0	0	0	53.5	45.3	79.0
2017 05/19 10:45	49.5	66.0	217.3	0.0	30.11	46.6	874.0	13.03	-39.9	0	75.7	52.4	53.9	0	186	0	0	0	54.7	45.9	79.0
2017 05/19 11:00	49.4	66.7	232.7	0.0	30.11	46.8	877.0	13.04	-40.1	0	75.6	53.3	55.5	0	186	0	0	0	56.2	46.9	78.9
2017 05/19 11:15	49.9	67.5	224.9	0.0	30.11	46.9	877.0	13.02	-39.9	0	75.7	52.4	55.2	0	186	0	0	0	57.5	47.7	78.9
2017 05/19 11:30	49.9	66.2	225.6	0.0	30.12	47.2	873.0	13.04	-40.0	0	75.5	55.1	56.5	0	186	0	0	0	59.4	48.7	78.9
2017 05/19 11:45	50.5	62.5	224.9	0.0	30.12	47.4	880.0	13.02	-40.0	0	75.0	55.1	56.5	0	186	0	0	0	61.4	49.6	78.9
2017 05/19 12:00	51.5	61.1	184.7	0.0	30.12	47.6	884.0	13.04	-40.0	0	75.0	58.7	58.2	0	186	0	0	0	63.0	50.5	78.8
2017 05/19 12:15	53.0	61.0	311.7	0.0	30.13	47.8	867.0	13.03	-40.0	0	75.1	56.0	58.4	0	186	0	0	0	64.7	51.2	78.8
2017 05/19 12:30	51.0	65.6	237.2	0.0	30.13	48.1	896.0	12.99	-40.0	0	75.4	56.9	57.5	0	186	0	0	0	65.1	51.4	78.8
2017 05/19 12:45	51.6	62.7	238.6	0.0	30.13	48.2	862.0	12.99	-40.0	0	75.5	55.1	59.2	0	186	0	0	0	66.6	52.0	78.8
2017 05/19 13:00	52.3	63.9	273.1	0.1	30.13	47.9	896.0	13.00	-40.0	0	75.2	56.9	60.6	0	186	0	0	0	67.4	52.3	0.0
2017 05/19 13:15	-8.4	18.7	284.6	8.5	30.13	48.0	875.0	12.98	-40.1	0	75.2	56.9	59.1	0	186	0	0	0	67.7	52.4	0.0
2017 05/19 13:30	-45.0	-5.1	199.5	4.9	30.13	47.5	886.0	13.00	-40.0	0	75.3	57.8	59.5	0	186	0	0	0	68.1	52.4	0.0
2017 05/19 13:45	-65.7	-17.1	248.2	7.5	30.12	47.5	865.0	13.00	-40.0	0	75.1	55.1	62.5	0	186	0	0	0	68.7	52.8	0.0
2017 05/19 14:00	-93.6	-30.7	282.0	6.6	30.12	47.8	890.0	12.98	-40.0	0	74.9	58.7	61.6	0	186	0	0	0	69.3	53.1	0.0
2017 05/19 14:15	-96.9	-30.4	281.6	5.2	30.13	48.0	890.0	12.99	-39.9	0	74.8	57.8	60.0	0	186	0	0	0	69.5	53.2	0.0
2017 05/19 14:30	-105.5	-33.9	197.4	8.1	30.13	48.4	869.0	12.98	-40.0	0	74.6	59.6	61.0	0	186	0	0	0	70.0	53.2	0.0
2017 05/19 14:45	-120.5	-41.2	281.5	5.2	30.13	48.7	886.0	13.00	-40.0	0	74.8	56.9	61.4	0	186	0	0	0	70.1	53.3	0.0
2017 05/19 15:00	-123.4	-42.9	294.1	6.6	30.14	49.0	877.0	13.01	-40.0	0	74.6	58.7	62.9	0	186	0	0	0	70.6	53.5	0.0
2017 05/19 15:15	-123.9	-43.3	253.4	6.9	30.14	49.4	884.0	13.00	-39.9	0	74.6	58.7	62.3	0	186	0	0	0	70.9	53.7	0.0
2017 05/19 15:30	-125.3	-44.4	206.4	7.1	30.14	49.7	877.0	13.01	-40.0	0	74.8	58.7	63.8	0	186	0	0	0	71.2	53.7	0.0
2017 05/19 15:45	-125.9	-45.3	263.3	13.7	30.14	50.1	877.0	12.99	-40.0	0	74.6	57.8	63.2	0	186	0	0	0	71.0	53.7	0.0
2017 05/19 16:00	-126.2	-45.9	266.3	10.9	30.14	50.5	881.0	12.98	-40.0	0	74.6	58.7	62.5	0	186	0	0	0	71.0	53.5	0.0
2017 05/19 16:15	-126.2	-46.8	279.2	8.6	30.15	50.8	883.0	12.99	-40.0	0	74.2	57.8	62.3	0	186	0	0	0	71.1	53.5	0.0
2017 05/19 16:30	-119.3	-43.6	279.2	8.2	30.15	51.1	891.0	13.00	-40.1	0	74.2	56.0	60.9	0	186	0	0	0	70.8	53.5	0.0
2017 05/19 16:45	-125.4	-47.3	325.3	15.5	30.15	51.6	862.0	13.01	-40.0	0	74.3	55.1	60.7	0	186	0	0	0	71.0	53.5	0.0
2017 05/19 17:00	-124.2	-47.0	199.4	4.2	30.16	52.0	911.0	13.02	-40.0	0	74.0	56.9	63.6	0	186	0	0	0	72.0	53.7	0.0
2017 05/19 17:15	-124.0	-47.4	276.1	10.4	30.17	52.4	952.0	13.01	-39.9	0	74.0	56.9	63.6	0	186	0	0	0	72.0	53.7	0.0
2017 05/19 17:30	-122.8	-47.2	247.8	8.3	30.17	52.6	961.0	13.02	-40.0	0	73.8	56.9	63.4	0	186	0	0	0	72.1	53.8	0.0
2017 05/19 17:45	-121.2	-46.8	269.4	13.7	30.18	53.1	886.0	13.00	-40.0	0	73.9	53.3	60.9	0	186	0	0	0	72.5	53.7	0.0
2017 05/19 18:00	-120.5	-46.7	267.0	14.5	30.18	53.5	890.0	13.01	-40.0	0	74.0	53.3	59.3	0	186	0	0	0	72.3	53.7	0.0
2017 05/19 18:15	-119.3	-46.4	271.8	6.1	30.18	53.9	881.0	13.01	-40.1	0	73.8	52.4	58.7	0	186	0	0	0	72.2	53.5	0.0
2017 05/19 18:30	-110.6	-41.7	297.0	11.5	30.18	54.2	923.0	13.01	-39.9	0	74.0	51.5	57.3	0	186	0	0	0	71.9	53.5	0.0
2017 05/19 18:45	-118.3	-46.3	275.0	11.4	30.18	54.6	889.0	12.99	-40.0	0	74.0	50.6	55.6	0	186	0	0	0	71.3	53.3	0.0
2017 05/19 19:00	-111.1	-42.5	289.2	10.8	30.18	54.9	885.0	13.01	-39.9	0	73.7	51.5	54.9	0	186	0	0	0	70.8	53.2	0.0
2017 05/19 19:15	-115.2	-45.2	240.4	5.8	30.19	55.2	960.0	13.00	-39.9	0	73.7	51.5	54.2	0	186	0	0	0	70.2	53.0	0.0
2017 05/19 19:30	-106.2	-40.4	151.1	11.3	30.19	55.4	937.0	13.00	-39.9	0	73.9	50.6	51.7	0	186	0	0	0	69.8	52.9	0.0
2017 05/19 19:45	-114.0	-44.9	278.8	10.2	30.20	55.8	955.0	13.01	-39.9	0	73.5	49.7	50.1	0	186	0	0	0	69.1	52.7	0.0
2017 05/19 20:00	-113.6	-44.6	258.1	15.4	30.20	56.0	948.0	12.99	-40.0	0	73.9	47.9	48.1	0	186	0	0	0	68.4	52.4	0.0
2017 05/19 20:15	-112.9	-44.2	281.3	14.0	30.20	56.2	927.0	13.01	-40.1	0	73.8	46.1	48.4	0	186	0	0	0	67.7	52.3	0.0
2017 05/19 20:30	-114.0	-43.4	275.8	13.8	30.21	56.5	601.2	12.99	-39.9	0	73.7	45.2	48.9	0	186	0	0	0	66.9	52.0	0.0
2017 05/19 20:45	-112.5	-40.2	203.4	14.5	30.21	56.5	353.2	12.99	-40.0	0	73.9	43.4	49.5	0	186	0	0	0	66.0	51.7	0.0
2017 05/19 21:00	-98.6	-30.5	273.1	17.2	30.21	56.7	94.0	13.00	-39.9	0	73.7	42.5	49.0	0	186	0	0	0	65.3	51.4	0.0
2017 05/19 21:15	-98.9	-29.9	274.4	15.1	30.22	56.9	11.5	12.99	-40.0	0	73.9	42.5	47.7	0	186	0	0	0	64.5	51.2	0.0
2017 05/19 21:30	-86.2	-22.6	274.0	19.2	30.23	56.9	1.4	12.98	-40.0	0	73.7	42.5	48.3	0	186	0	0	0	63.9	51.1	0.0
2017 05/19 21:45	-70.8	-14.3	297.0	15.8	30.23	57.0	0.0	12.99	-40.0	0	73.7	41.6	47.8	0	186	0	0	0	63.1	50.9	0.0
2017 05/19 22:00	-57.1	-7.9	258.4	14.4	30.23	57.1	0.0	12.99	-40.0	0	73.9	40.7	44.4	0	186	0	0	0	62.3	50.6	0.0
2017 05/19 22:15	-43.8	-2.9	248.5	12.4	30.23	57.1	-0.3	13.01	-40.0	0	73.5	40.7	46.1	0	186	0	0	0	61.7	50.4	0.0
2017 05/19 22:30	-38.8	-0.5	243.7	15.2	30.23	57.1	-0.3	12.99	-40.1	0	73.5	40.7	46.9	0	186	0	0	0	61.1	50.3	0.0
2017 05/19 22:45	-32.3	1.6	262.8	11.5	30.23	56.9	-0.3	12.99	-40.0	0	73.6	40.7	47.2	0	186	0	0	0	60.5	50.0	0.0
2017 05/19 23:00	-23.8	4.2	249.0	16.1	30.22	56.9	0.0	13.00	-40.0	0	73.7	40.7	47.0	0	186	0	0	0	59.9	49.7	0.0
2017 05/19 23:15	-10.4	16.8	252.4	19.8	30.21	56.7	0.0	12.98	-40.0	0	73.7	39.8	46.5	0	186	0	0	0	59.3	49.5	0.0
2017 05/19 23:30	-5.4	22.1	244.0	19.1	30.21	56.7	-0.3	13.01	-40.0	0	73.8	39.8	43.3	0	186	0	0	0	58.8	49.4	0.0
2017 05/19 23:45	-1.8	21.6	237.9	20.7	30.20	56.5	-0.3	12.99	-39.9	0	73.7	39.8	43.0	0	186	0	0	0	58.4	49.2	0.0
2017 05/20 00:00	10.7	29.0	239.7	20.1	30.20	56.3	0.0	13.00	-40.0	0	73.5	39.8	43.9	0	186	0	0	0	57.8	48.9	0.0
2017 05/20 00:15	13.6	32.9	246.1	17.4	30.20	56.3	0.0	13.01	-40.0	0	73.6	38.9	43.1	0	186	0	0	0	57.4	48.7	0.0
2017 05/20 00:30	16.8	35.8	256.8	17.8	30.20	56.1	0.0	13.01	-40.0	0	73.7	38.9	41.4	0	186	0	0	0	56.9	48.6	0.0
2017 05/20 00:45	13.0	34.7	255.2	18.7	30.20	55.9	-0.3	13.01	-40.0	0	73.5	38.9	45.1	0	186	0	0	0	56.6	48.4	0.0
2017 05/20 01:00	18.0	37.5	269.1	17.5	30.20	55.6	0.0	12.97	-40.0	0	73.5	38.9	45.2	0	186	0	0	0	56.2	48.2	0.0
2017 05/20 01:15	23.5	38.3	255.4	18.8	30.19	55.4	-0.3	12.99	-40.0	0	73.3	39.8	45.4	0	186	0	0	0	55.7	48.0	0.0
2017 05/20 01:30	32.9	44.9	251.1	16.1	30.19	55.2	0.0	13.01	-40.0	0	73.4	39.8	45.7	0	186	0	0	0	55.5	47.9	0.0
2017 05/20 01:45	33.5	46.3	230.6	20.7	30.18	55.0	-0.3	12.99	-40.0	0	73.3	39.8	45.7	0	186	0	0	0	55.1	47.9	0.0
2017 05/20 02:00	22.5	39.1	243.6	24.5	30.17	54.8	0.0	12.98	-40.0	0	73.2	38.9	42.4	0	186	0	0	0	54.9	47.8	0.0
2017 05/20 02:15	26.9	40.9	260.4	21.4	30.17	54.6	-0.3	13.00	-40.1	0	73.3	38.9	42.1	0	186	0	0	0	54.6	47.7	0.0
2017 05/20 02:30	25.8	35.3	261.4	19.4	30.17	54.4	0.0	12.99	-40.0	0	73.2	38.9	41.6	0	186	0	0	0	54.5	47.7	0.0
2017 05/20 02:45	26.9	31.1	261.3	18.4	30.17	54.1	0.0	13.01	-40.0	0	73.3	38.9	41.5	0	186	0	0	0	54.2	47.6	0.0
2017 05/20 03:00	21.4	28.9	246.2	17.9	30.17	53.9	-0.3	13.01	-40.0	0	73.2	39.8	42.1	0	186	0	0	0	54.0	47.5	0.0
2017 05/20 03:15	11.8	26.1	250.4	22.0	30.16	53.7	-0.3	12.97	-40.0	0	73.2	39.8	42.9	0	186	0	0	0	53.9	47.5	0.0
2017 05/20 03:30	0.3	23.6	239.8	20.7	30.16	53.5	0.0	12.99	-39.9	0	73.3	39.8	42.6	0	186	0	0	0	53.7	47.5	0.0
2017 05/20 03:45	1.2	22.7	246.2	20.5	30.16	53.3	0.0	12.99	-40.0	0	73.2	39.8	42.7	0	186	0	0	0	53.4	47.4	0.0
2017 05/20 04:00	5.2	21.6	247.6	19.2	30.16	53.1	-0.3	12.99	-40.0	0	73.2	39.8	43.1	0	186	0	0	0	53.3	47.2	0.0
2017 05/20 04:15	4.1	21.4	235.2	17.6	30.16	52.9	0.0	12.99	-40.0	0	73.3	38.9	42.3	0	186	0	0	0	53.1	47.1	0.0
2017 05/20 04:30	10.6	22.9	238.8	19.1	30.16	52.6	0.0	12.99	-40.0	0	73.1	38.9	41.8	0	186	0	0	0	52.9	47.0	0.0
2017 05/20 04:45	8.4	23.1	246.7	17.8	30.16	52.4	0.3	13.00	-40.0	0	73.2	38.9	42.6	0	186	0	0	0	52.7	47.0	0.0
2017 05/20 05:00	6.8	25.6	255.2	18.5	30.15	52.2	1.4	13.01	-40.0	0	73.1	38.9	43.6	0	186	0	0	0	52.4	46.9	0.0
2017 05/20 05:15	9.1	26.6	253.0	17.1	30.15	52.0	18.3	12.98	-39.9	0	73.1	38.9	43.5	0	186	0	0	0	52.3	46.8	0.0
2017 05/20 05:30	16.8	31.2	255.5	18.5	30.15	51.8	129.3	13.02	-39.9	0	73.1	38.9	43.2	0	186	0	0	0	52.2	46.8	0.0
2017 05/20 05:45	8.1	29.0	247.9	16.1	30.15	51.6	310.4	12.98	-40.0	0	72.9	38.9	43.5	0	186	0	0	0	52.0	46.7	0.0
2017 05/20 06:00	8.1	28.4	252.8	17.1	30.15	51.4	490.6	12.98	-39.9	0	73.0	38.9	43.5	0	186	0	0	0	51.9	46.6	0.0
2017 05/20 06:15	7.6	27.6	252.0	18.2	30.15	51.1	622.9	12.98	-40.0	0	72.8	38.9	44.2	0	186	0	0	0	51.6	46.6	0.0
2017 05/20 06:30	0.8	25.9	240.3	22.5	30.14	50.9	753.0	12.98	-39.9	0	73.0	38.9	44.3	0	186	0	0	0	51.5	46.6	0.0
2017 05/20 06:45	12.6	29.9	263.6	19.9	30.14	50.8	793.0	12.99	-40.0	0	73.0	38.9	44.7	0	186	0	0	0	51.4	46.5	0.0
2017 05/20 07:00	3.4	25.3	242.2	21.2	30.14	50.6	818.0	12.99	-39.9	0	72.9	38.9	44.4	0	186	0	0	0	51.3	46.5	0.0
2017 05/20 07:15	1.0	24.7	253.2	19.9	30.14	50.5	822.0	12.99	-39.9	0	73.1	38.9	44.7	0	186	0	0	0	51.3	46.5	0.0
2017 05/20 07:30	0.9	26.0	266.7	19.8	30.14	50.3	825.0	12.97	-40.1	0	72.9	39.8	45.4	0	186	0	0	0	51.4	46.5	0.0
2017 05/20 07:45	0.7	26.0	258.1	15.4	30.14	50.1	864.0	12.98	-39.9	0	72.8	40.7	46.0	0	186	0	0	0	51.4	46.5	0.0
2017 05/20 08:00	-10.1	24.1	268.2	11.7	30.14	49.9	845.0	13.01	-39.9	0	72.9	40.7	45.8	0	186	0	0	0	51.6	46.6	0.0
2017 05/20 08:15	-7.4	27.7	259.1	14.6	30.14	49.9	864.0	12.98	-40.0	0	73.0	40.7	45.9	0	186	0	0	0	51.7	46.6	0.0
2017 05/20 08:30	-12.5	28.0	226.0	7.8	30.15	49.6	855.0	13.01	-39.9	0	72.9	40.7	45.7	0	186	0	0	0	51.9	46.7	0.0
2017 05/20 08:45	-10.7	30.2	267.7	11.8	30.15	49.7	868.0	13.00	-39.9	0	72.8	41.6	46.9	0	186	0	0	0	52.2	46.8	0.0
2017 05/20 09:00	-15.3	30.2	261.0	15.2	30.15	49.5	868.0	12.98	-39.9	0	72.6	42.5	47.0	0	186	0	0	0	52.7	46.9	0.0
2017 05/20 09:15	-31.3	24.1	267.4	12.2	30.15	49.5	860.0	12.99	-40.0	0	72.6	42.5	47.5	0	186	0	0	0	53.4	47.2	0.0
2017 05/20 09:30	-57.7	9.4	276.6	9.8	30.15	49.5	855.0	12.98	-40.0	0	72.5	45.2	48.3	0	186	0	0	0	53.8	47.5	0.0
2017 05/20 09:45	-74.2	-0.7	269.5	10.5	30.15	49.3	840.0	12.98	-40.0	0	72.5	44.3	48.8	0	186	0	0	0	54.5	47.8	0.0
2017 05/20 10:00	-85.9	-7.7	262.2	9.8	30.15	49.2	857.0	12.99	-40.0	0	72.4	46.1	49.5	0	186	0	0	0	55.1	48.0	0.0
2017 05/20 10:15	-95.2	-13.8	235.0	8.3	30.16	49.2	849.0	12.98	-40.0	0	72.4	47.0	50.1	0	186	0	0	0	55.9	48.6	0.0
2017 05/20 10:30	-106.8	-23.0	287.1	7.3	30.16	49.2	849.0	13.01	-39.9	0	72.0	47.0	50.8	0	186	0	0	0	56.7	49.0	0.0
2017 05/20 10:45	-107.1	-25.9	264.4	9.7	30.16	49.2	855.0	12.98	-40.0	0	72.2	47.0	50.7	0	186	0	0	0	57.8	49.7	0.0
2017 05/20 11:00	-117.6	-32.4	292.2	8.1	30.16	49.2	850.0	13.01	-40.0	0	72.4	47.9	51.4	0	186	0	0	0	58.8	50.4	0.0
2017 05/20 11:15	-120.9	-35.8	305.5	13.4	30.16	49.3	850.0	13.00	-40.0	0	72.4	49.7	52.2	0	186	0	0	0	60.2	51.1	0.0
2017 05/20 11:30	-122.4	-38.5	327.3	6.8	30.16	49.4	852.0	13.00	-40.0	0	72.3	50.6	52.9	0	186	0	0	0	61.3	51.5	0.0
2017 05/20 11:45	-124.3	-40.5	288.0	12.0	30.16	49.5	852.0	13.01	-40.0	0	72.0	50.6	53.4	0	186	0	0	0	62.5	52.2	0.0
2017 05/20 12:00	-125.6	-42.3	274.4	10.8	30.16	49.5	852.0	13.01	-40.0	0	72.2	51.5	53.8	0	186	0	0	0	63.8	52.7	0.0
2017 05/20 12:15	-126.4	-43.2	256.4	12.7	30.16	49.5	852.0	12.98	-39.9	0	72.2	52.4	54.1	0	186	0	0	0	65.1	53.1	0.0
2017 05/20 12:30	-126.5	-43.8	236.0	3.9	30.16	49.6	852.0	13.00	-40.0	0	72.3	51.5	54.7	0	186	0	0	0	65.8	53.4	0.0
2017 05/20 12:45	-127.5	-44.6	256.9	13.9	30.17	49.7	853.0	12.99	-40.0	0	72.2	52.4	55.1	0	186	0	0	0	66.9	53.7	0.0
2017 05/20 13:00	-121.1	-41.5	265.1	6.8	30.17	49.9	852.0	12.99	-39.9	0	72.3	53.3	55.9	0	186	0	0	0	67.5	54.0	0.0
2017 05/20 13:15	-120.5	-41.7	290.4	9.3	30.17	49.9	851.0	12.99	-40.0	0	72.0	53.3	56.2	0	186	0	0	0	68.0	54.1	0.0
2017 05/20 13:30	-122.9	-43.2	219.8	12.4	30.18	50.1	850.0	13.02	-39.9	0	71.8	54.2	56.6	0	186	0	0	0	68.6	54.3	0.0
2017 05/20 13:45	-130.0	-47.4	222.5	7.3	30.18	50.1	850.0	13.02	-39.9	0	71.4	55.1	57.0	0	186	0	0	0	69.0	54.6	0.0
2017 05/20 14:00	-129.9	-48.0	295.6	8.1	30.18	50.3	852.0	13.01	-39.9	0	71.7	54.2	57.5	0	186	0	0	0	69.4	54.7	0.0
2017 05/20 14:15	-128.5	-47.8	270.1	5.3	30.18	50.5	853.0	13.00	-40.0	0	71.6	54.2	57.9	0	186	0	0	0	69.4	54.7	0.0
2017 05/20 14:30	-129.2	-48.4	290.1	9.4	30.18	50.5	854.0	12.98	-40.0	0	71.4	56.0	58.8	0	186	0	0	0	69.9	54.6	0.0
2017 05/20 14:45	-127.8	-48.2	221.3	9.1	30.18	50.7	854.0	12.98	-40.0	0	71.5	55.1	58.6	0	186	0	0	0	69.8	54.5	0.0
2017 05/20 15:00	-128.5	-48.9	290.1	10.5	30.18	50.9	854.0	13.02	-40.0	0	71.3	56.0	59.1	0	186	0	0	0	69.9	54.5	0.0
2017 05/20 15:15	-120.9	-45.0	231.0	6.7	30.18	50.9	854.0	13.00	-40.1	0	71.3	56.0	59.3	0	186	0	0	0	70.1	54.3	0.0
2017 05/20 15:30	-127.9	-49.3	321.9	5.2	30.18	51.1	855.0	13.00	-40.0	0	71.2	55.1	58.7	0	186	0	0	0	70.4	54.5	0.0
2017 05/20 15:45	-127.8	-49.3	271.3	7.4	30.18	51.4	856.0	13.01	-40.0	0	71.2	56.0	60.6	0	186	0	0	0	70.5	54.5	0.0
2017 05/20 16:00	-127.8	-49.4	318.6	7.7	30.18	51.6	859.0	13.01	-40.0	0	71.0	56.9	60.5	0	186	0	0	0	70.9	54.3	0.0
2017 05/20 16:15	-127.8	-49.6	241.6	9.1	30.18	51.8	866.0	12.99	-40.0	0	70.9	56.0	61.0	0	186	0	0	0	71.2	54.5	0.0
2017 05/20 16:30	-126.5	-49.3	317.1	5.5	30.19	52.0	869.0	13.00	-39.9	0	71.1	56.0	61.4	0	186	0	0	0	71.5	54.5	0.0
2017 05/20 16:45	-126.6	-49.6	277.7	7.4	30.19	52.2	865.0	13.00	-40.0	0	70.9	55.1	60.4	0	186	0	0	0	72.0	54.6	0.0
2017 05/20 17:00	-126.2	-49.5	325.5	11.9	30.19	52.4	901.0	13.00	-39.9	0	70.7	55.1	61.5	0	186	0	0	0	72.5	54.6	0.0
2017 05/20 17:15	-125.3	-49.3	327.0	11.3	30.19	52.6	951.0	12.99	-40.0	0	70.6	55.1	61.3	0	186	0	0	0	72.9	54.7	0.0
2017 05/20 17:30	-123.8	-49.1	312.1	13.2	30.19	53.1	961.0	13.00	-40.0	0	70.7	54.2	61.9	0	186	0	0	0	73.4	54.8	0.0
2017 05/20 17:45	-117.3	-45.6	269.5	9.1	30.20	53.3	909.0	12.99	-40.0	0	70.6	55.1	62.1	0	186	0	0	0	73.6	54.8	0.0
2017 05/20 18:00	-123.5	-49.2	290.0	9.7	30.20	53.7	961.0	12.99	-40.0	0	70.9	53.3	60.9	0	186	0	0	0	73.7	54.8	0.0
2017 05/20 18:15	-122.7	-48.9	325.0	8.5	30.20	53.9	962.0	12.99	-39.9	0	70.6	53.3	61.3	0	186	0	0	0	73.8	54.8	0.0
2017 05/20 18:30	-116.0	-45.5	320.6	9.8	30.21	54.4	856.0	13.01	-40.0	0	70.5	53.3	61.5	0	186	0	0	0	73.7	54.8	0.0
2017 05/20 18:45	-113.4	-44.2	304.5	13.7	30.21	54.6	853.0	13.01	-40.0	0	70.4	52.4	60.0	0	186	0	0	0	73.2	54.8	0.0
2017 05/20 19:00	-120.5	-48.4	319.6	9.2	30.22	55.0	852.0	13.00	-40.0	0	70.6	51.5	57.9	0	186	0	0	0	72.9	54.7	0.0
2017 05/20 19:15	-111.2	-43.4	317.1	10.2	30.22	55.2	960.0	13.00	-40.0	0	70.6	50.6	51.6	0	186	0	0	0	72.6	54.6	0.0
2017 05/20 19:30	-118.0	-47.2	303.6	9.7	30.23	55.5	952.0	13.01	-40.0	0	70.4	50.6	51.5	0	186	0	0	0	72.0	54.5	0.0
2017 05/20 19:45	-116.2	-46.5	323.0	6.2	30.24	55.9	955.0	13.02	-40.0	0	70.3	50.6	51.3	0	186	0	0	0	71.3	54.2	0.0
2017 05/20 20:00	-115.4	-46.1	341.6	3.4	30.24	56.1	843.0	13.00	-40.1	0	70.2	47.9	49.8	0	186	0	0	0	70.8	54.1	0.0
2017 05/20 20:15	-113.8	-45.3	18.2	8.6	30.25	56.3	828.0	12.99	-40.0	0	70.2	47.0	49.0	0	186	0	0	0	70.3	54.0	0.0
2017 05/20 20:30	-112.7	-44.9	15.1	8.8	30.25	56.5	817.0	13.01	-40.0	0	70.0	45.2	47.1	0	186	0	0	0	69.6	53.7	0.0
2017 05/20 20:45	-111.6	-44.6	64.3	11.5	30.25	56.7	362.7	13.01	-40.1	0	70.4	43.4	45.7	0	186	0	0	0	68.5	53.3	0.0
2017 05/20 21:00	-103.5	-40.1	52.5	13.1	30.26	56.9	83.5	13.01	-39.9	0	70.3	43.4	44.1	0	186	0	0	0	67.5	52.9	0.0
2017 05/20 21:15	-111.0	-44.4	62.8	19.6	30.26	56.9	11.9	12.98	-40.0	0	70.6	43.4	43.5	0	186	0	0	0	66.7	52.7	0.0
2017 05/20 21:30	-103.8	-40.4	65.4	24.4	30.26	57.1	2.0	12.99	-40.0	0	70.4	44.3	42.2	0	186	0	0	0	65.7	52.2	0.0
2017 05/20 21:45	-103.9	-40.3	62.9	28.1	30.26	57.1	0.3	12.98	-40.0	0	70.4	44.3	46.9	0	186	0	0	0	64.8	51.9	0.0
2017 05/20 22:00	-104.4	-40.3	66.5	32.5	30.27	57.1	-0.3	12.99	-40.0	0	70.2	44.3	50.2	0	186	0	0	0	64.0	51.5	0.0
2017 05/20 22:15	-105.5	-40.6	61.7	28.5	30.27	57.1	0.0	12.98	-40.0	0	70.5	43.4	49.7	0	186	0	0	0	63.5	51.2	0.0
2017 05/20 22:30	-106.3	-40.6	74.6	25.8	30.27	56.9	-0.3	13.00	-40.0	0	70.3	43.4	49.2	0	186	0	0	0	62.7	51.0	0.0
2017 05/20 22:45	-114.0	-44.1	78.8	25.6	30.27	56.9	-0.3	13.01	-40.0	0	70.1	43.4	49.0	0	186	0	0	0	62.0	50.7	0.0
2017 05/20 23:00	-112.9	-38.1	74.3	27.2	30.27	56.7	-0.3	13.01	-40.0	0	70.3	42.5	48.9	0	186	0	0	0	61.3	50.4	0.0
2017 05/20 23:15	-112.4	-41.9	53.0	25.6	30.27	56.5	-0.3	13.00	-39.9	0	70.3	42.5	48.4	0	186	0	0	0	60.9	50.2	0.0
2017 05/20 23:30	-113.5	-41.8	80.3	26.1	30.27	56.3	0.0	12.99	-40.0	0	70.2	42.5	47.9	0	186	0	0	0	60.3	50.0	0.0
2017 05/20 23:45	-105.8	-37.2	69.7	28.1	30.27	56.1	0.0	13.01	-39.9	0	70.3	41.6	48.0	0	186	0	0	0	59.6	49.7	0.0
2017 05/21 00:00	-107.7	-38.0	69.0	23.2	30.27	55.8	0.0	13.00	-40.0	0	70.4	41.6	48.0	0	186	0	0	0	59.3	49.6	0.0
2017 05/21 00:15	-108.3	-38.0	75.1	23.9	30.27	55.4	0.0	13.01	-39.9	0	70.2	41.6	47.1	0	186	0	0	0	58.7	49.4	0.0
2017 05/21 00:30	-110.2	-38.5	72.7	23.6	30.26	55.2	0.0	12.99	-39.9	0	70.3	40.7	46.3	0	186	0	0	0	58.2	49.2	0.0
2017 05/21 00:45	-118.0	-42.3	76.1	23.3	30.26	55.0	0.0	13.00	-40.0	0	70.3	40.7	46.7	0	186	0	0	0	57.7	48.9	0.0
2017 05/21 01:00	-109.6	-37.3	85.0	22.6	30.26	54.8	0.0	13.01	-40.0	0	70.2	40.7	45.2	0	186	0	0	0	57.3	48.7	0.0
2017 05/21 01:15	-118.5	-41.5	88.1	23.6	30.26	54.4	0.0	12.99	-40.0	0	70.3	40.7	45.3	0	186	0	0	0	56.8	48.5	0.0
2017 05/21 01:30	-118.3	-40.7	81.7	21.9	30.25	54.1	0.0	12.98	-39.9	0	70.4	39.8	45.2	0	186	0	0	0	56.4	48.3	0.0
2017 05/21 01:45	-116.9	-35.0	84.2	24.1	30.25	53.9	0.0	13.01	-40.0	0	70.1	39.8	43.9	0	186	0	0	0	55.8	48.0	0.0
2017 05/21 02:00	-109.4	-34.6	86.5	24.4	30.25	53.7	0.0	13.02	-40.0	0	70.2	39.8	43.0	0	186	0	0	0	55.5	47.8	0.0
2017 05/21 02:15	-118.4	-38.8	77.6	24.8	30.24	53.4	0.0	13.01	-39.9	0	70.3	39.8	43.0	0	186	0	0	0	55.0	47.7	0.0
2017 05/21 02:30	-109.0	-32.8	84.3	26.6	30.24	53.1	0.0	13.01	-40.0	0	69.9	39.8	43.1	0	186	0	0	0	54.6	47.5	0.0
2017 05/21 02:45	-109.5	-32.2	88.7	31.8	30.24	52.9	0.0	13.00	-40.0	0	70.2	39.8	44.2	0	186	0	0	0	54.2	47.2	0.0
2017 05/21 03:00	-108.3	-30.9	90.9	33.5	30.22	52.6	0.0	12.99	-40.0	0	70.1	39.8	44.9	0	186	0	0	0	53.8	47.1	0.0
2017 05/21 03:15	-107.9	-29.9	95.9	33.9	30.21	52.2	0.0	13.00	-40.0	0	70.1	39.8	44.9	0	186	0	0	0	53.5	46.9	0.0
2017 05/21 03:30	-115.8	-33.3	93.7	35.3	30.21	52.0	0.0	13.00	-40.0	0	70.1	39.8	44.9	0	186	0	0	0	53.2	46.8	0.0
2017 05/21 03:45	-102.9	-25.4	106.6	34.0	30.21	51.6	-0.3	12.99	-40.0	0	70.2	39.8	45.2	0	186	0	0	0	52.9	46.6	0.0
2017 05/21 04:00	-97.3	-21.4	93.6	36.2	30.20	51.4	0.0	13.00	-40.1	0	69.9	39.8	45.1	0	186	0	0	0	52.7	46.5	0.0
2017 05/21 04:15	-91.7	-17.4	97.1	36.5	30.20	51.1	0.0	12.98	-39.9	0	70.0	39.8	45.1	0	186	0	0	0	52.5	46.4	0.0
2017 05/21 04:30	-93.4	-12.7	91.2	37.6	30.20	50.7	0.0	12.99	-39.9	0	69.9	39.8	45.3	0	186	0	0	0	52.3	46.1	0.0
2017 05/21 04:45	-89.1	-15.1	97.8	35.6	30.20	50.5	0.0	12.98	-40.1	0	69.9	38.9	44.9	0	186	0	0	0	52.1	46.0	0.0
2017 05/21 05:00	-71.6	-5.0	92.0	35.9	30.20	50.1	3.4	12.98	-40.0	0	70.0	38.9	44.7	0	186	0	0	0	51.9	45.9	0.0
2017 05/21 05:15	-74.9	-6.4	85.8	32.0	30.20	49.9	37.3	13.01	-40.0	0	70.0	38.9	44.4	0	186	0	0	0	51.5	45.9	0.0
2017 05/21 05:30	-66.8	-1.9	94.3	31.3	30.20	49.6	214.8	13.01	-40.0	0	70.1	38.9	44.5	0	186	0	0	0	51.3	45.7	0.0
2017 05/21 05:45	-50.3	7.3	82.2	29.9	30.20	49.3	458.7	12.97	-40.0	0	69.9	39.8	45.0	0	186	0	0	0	51.2	45.6	0.0
2017 05/21 06:00	-57.7	2.9	82.5	30.7	30.20	49.1	588.0	13.00	-39.9	0	70.1	39.8	45.2	0	186	0	0	0	51.0	45.5	0.0
2017 05/21 06:15	-42.7	10.9	86.3	30.6	30.20	48.8	688.7	13.00	-40.0	0	70.1	38.9	45.1	0	186	0	0	0	50.9	45.5	0.0
2017 05/21 06:30	-44.3	10.0	84.2	32.1	30.20	48.6	717.0	13.01	-40.0	0	69.6	41.6	45.3	0	186	0	0	0	50.6	45.3	0.0
2017 05/21 06:45	-30.7	17.6	84.3	30.4	30.20	48.3	750.0	13.00	-40.1	0	69.7	43.4	46.2	0	186	0	0	0	50.5	45.2	0.0
2017 05/21 07:00	-28.5	18.5	90.5	32.7	30.19	48.1	769.0	13.00	-40.1	0	69.9	42.5	47.0	0	186	0	0	0	50.5	45.2	0.0
2017 05/21 07:15	-37.3	13.8	94.3	38.0	30.18	47.8	784.0	12.98	-40.0	0	69.5	44.3	47.6	0	186	0	0	0	50.6	45.2	0.0
2017 05/21 07:30	-36.8	13.7	104.9	30.6	30.20	47.6	795.0	12.98	-39.9	0	69.1	46.1	48.3	0	186	0	0	0	50.6	45.2	0.0
2017 05/21 07:45	-55.1	2.0	74.3	25.1	30.21	47.4	802.0	13.00	-40.0	0	69.4	45.2	48.7	0	186	0	0	0	51.0	45.3	0.0
2017 05/21 08:00	-62.0	47.5	98.9	32.7	30.19	47.4	810.0	13.00	-40.1	0	69.4	46.1	49.4	0	186	0	0	0	51.2	45.6	0.0
2017 05/21 08:15	-63.1	52.3	93.0	32.6	30.19	47.2	815.0	12.98	-39.9	0	69.4	46.1	49.8	0	186	0	0	0	51.4	45.8	0.0
2017 05/21 08:30	-62.8	52.3	81.2	31.6	30.19	47.2	823.0	12.98	-39.9	0	69.1	47.0	50.6	0	186	0	0	0	51.4	46.0	0.0
2017 05/21 08:45	-78.8	45.3	90.9	32.0	30.19	47.2	831.0	13.00	-40.0	0	69.2	47.9	51.0	0	186	0	0	0	51.9	46.5	0.0
2017 05/21 09:00	-78.5	49.2	83.9	27.9	30.20	47.1	850.0	13.01	-39.9	0	69.0	47.9	51.4	0	186	0	0	0	52.2	46.9	0.0
2017 05/21 09:15	-89.0	45.1	90.3	31.4	30.19	47.0	865.0	13.02	-40.0	0	69.2	47.0	52.2	0	186	0	0	0	52.4	47.2	0.0
2017 05/21 09:30	-104.1	39.3	108.1	31.4	30.20	47.0	842.0	13.00	-40.0	0	69.0	47.9	52.5	0	186	0	0	0	53.2	47.8	0.0
2017 05/21 09:45	-110.5	29.2	85.6	26.6	30.21	47.0	842.0	13.01	-40.0	0	69.2	47.0	52.5	0	186	0	0	0	53.9	48.5	0.0
2017 05/21 10:00	-118.7	11.0	83.1	27.8	30.21	47.0	842.0	12.99	-40.0	0	69.2	47.9	53.0	0	186	0	0	0	54.5	48.8	0.0
2017 05/21 10:15	-117.4	-4.8	84.2	28.7	30.22	47.1	860.0	12.98	-40.0	0	69.0	49.7	54.6	0	186	0	0	0	55.1	49.3	0.0
2017 05/21 10:30	-129.8	-24.4	86.4	30.7	30.22	47.2	848.0	12.99	-40.0	0	69.2	49.7	55.3	0	186	0	0	0	56.2	50.1	0.0
2017 05/21 10:45	-132.2	-32.8	94.7	28.4	30.22	47.2	848.0	13.00	-40.0	0	69.2	50.6	56.2	0	186	0	0	0	57.5	51.2	0.0
2017 05/21 11:00	-133.8	-37.3	78.5	28.1	30.22	47.2	858.0	13.01	-40.0	0	69.0	51.5	56.4	0	186	0	0	0	58.8	52.1	0.0
2017 05/21 11:15	-134.9	-40.9	98.1	21.9	30.23	47.2	857.0	12.97	-40.0	0	69.1	51.5	57.3	0	186	0	0	0	59.6	52.8	0.0
2017 05/21 11:30	-134.3	-43.3	77.1	20.9	30.23	47.3	854.0	12.99	-40.1	0	68.7	52.4	57.5	0	186	0	0	0	61.0	53.7	0.0
2017 05/21 11:45	-134.4	-45.2	114.6	17.3	30.24	47.4	859.0	12.97	-40.1	0	68.8	52.4	57.8	0	186	0	0	0	62.4	54.6	0.0
2017 05/21 12:00	-126.9	-42.3	141.2	18.4	30.23	47.4	853.0	12.98	-40.0	0	68.5	55.1	60.5	0	186	0	0	0	63.7	55.1	0.0
2017 05/21 12:15	-133.8	-46.9	165.7	23.4	30.24	47.6	854.0	12.97	-40.0	0	68.0	56.0	60.7	0	186	0	0	0	64.6	55.5	0.0
2017 05/21 12:30	-133.3	-47.5	94.7	14.1	30.25	47.6	854.0	13.00	-39.9	0	68.6	56.0	60.5	0	186	0	0	0	65.6	56.0	0.0
2017 05/21 12:45	-133.0	-48.0	128.1	17.3	30.25	47.8	856.0	13.00	-39.9	0	68.5	56.9	62.1	0	186	0	0	0	66.6	56.4	0.0
2017 05/21 13:00	-126.4	-45.1	144.2	25.9	30.24	47.9	856.0	12.99	-40.1	0	68.5	57.8	63.8	0	186	0	0	0	67.3	57.2	0.0
2017 05/21 13:15	-124.5	-44.4	120.1	20.1	30.25	48.0	856.0	13.01	-40.0	0	67.9	57.8	63.6	0	186	0	0	0	67.8	57.5	0.0
2017 05/21 13:30	-124.9	-45.2	128.9	19.8	30.25	48.2	856.0	13.00	-40.0	0	67.8	57.8	64.5	0	186	0	0	0	68.7	57.8	0.0
2017 05/21 13:45	-125.0	-45.5	133.9	24.9	30.25	48.3	860.0	13.01	-39.9	0	68.1	59.6	64.5	0	186	0	0	0	69.5	58.0	0.0
2017 05/21 14:00	-125.3	-46.1	136.1	20.8	30.26	48.4	863.0	13.01	-40.0	0	68.1	59.6	65.8	0	186	0	0	0	70.1	58.2	0.0
2017 05/21 14:15	-125.0	-46.6	88.9	23.8	30.26	48.6	866.0	13.00	-40.0	0	67.8	59.6	65.9	0	186	0	0	0	70.3	58.2	0.0
2017 05/21 14:30	-133.1	-51.2	137.8	28.2	30.26	48.9	867.0	12.99	-40.0	0	67.8	59.6	66.0	0	186	0	0	0	70.6	58.0	0.0
2017 05/21 14:45	-124.4	-46.8	110.9	18.8	30.27	48.9	871.0	13.01	-40.0	0	67.4	59.6	66.1	0	186	0	0	0	71.0	57.9	0.0
2017 05/21 15:00	-131.9	-51.5	85.1	19.1	30.27	49.1	873.0	12.99	-40.1	0	67.4	59.6	66.0	0	186	0	0	0	71.2	57.9	0.0
2017 05/21 15:15	-131.5	-51.6	73.8	15.9	30.27	49.3	878.0	13.01	-40.1	0	67.5	59.6	67.6	0	186	0	0	0	71.5	57.8	0.0
2017 05/21 15:30	-123.8	-47.7	121.5	17.2	30.27	49.5	879.0	13.01	-40.0	0	67.2	60.5	67.7	0	186	0	0	0	72.0	57.8	0.0
2017 05/21 15:45	-130.9	-52.0	76.1	9.9	30.27	49.7	874.0	13.00	-40.0	0	67.0	61.4	66.9	0	186	0	0	0	72.5	57.9	0.0
2017 05/21 16:00	-131.7	-52.4	67.3	16.1	30.27	49.9	875.0	13.00	-39.9	0	67.0	60.5	67.3	0	186	0	0	0	73.0	57.7	0.0
2017 05/21 16:15	-122.7	-47.9	71.0	16.8	30.27	50.1	873.0	13.01	-40.0	0	67.0	61.4	68.3	0	186	0	0	0	73.1	57.7	0.0
2017 05/21 16:30	-131.4	-52.8	97.2	15.8	30.27	50.3	868.0	12.99	-40.0	0	67.0	60.5	67.9	0	186	0	0	0	73.8	57.7	0.0
2017 05/21 16:45	-122.6	-48.2	63.1	18.6	30.27	50.5	865.0	13.00	-40.0	0	66.8	59.6	67.9	0	186	0	0	0	74.3	57.7	0.0
2017 05/21 17:00	-130.0	-52.4	73.1	18.0	30.27	50.7	904.0	12.98	-40.0	0	66.3	60.5	67.8	0	186	0	0	0	74.7	57.7	0.0
2017 05/21 17:15	-129.4	-52.5	104.8	17.9	30.28	51.0	953.0	12.98	-40.1	0	66.5	59.6	68.4	0	186	0	0	0	75.3	57.7	0.0
2017 05/21 17:30	-129.2	-52.3	95.3	15.9	30.27	51.4	960.0	13.00	-39.9	0	66.6	59.6	69.3	0	186	0	0	0	75.6	57.6	0.0
2017 05/21 17:45	-121.5	-48.4	91.3	23.6	30.28	51.6	961.0	13.01	-40.0	0	66.7	60.5	69.9	0	186	0	0	0	75.7	57.6	0.0
2017 05/21 18:00	-127.7	-51.9	91.0	21.3	30.27	51.8	959.0	13.01	-40.0	0	66.6	58.7	68.2	0	186	0	0	0	76.0	57.6	0.0
2017 05/21 18:15	-119.8	-47.7	69.3	21.6	30.28	52.2	958.0	13.02	-40.0	0	66.9	58.7	67.8	0	186	0	0	0	76.0	57.5	0.0
2017 05/21 18:30	-125.9	-51.2	64.4	21.2	30.28	52.4	896.0	12.99	-40.0	0	66.5	58.7	66.5	0	186	0	0	0	75.9	57.4	0.0
2017 05/21 18:45	-125.0	-51.0	78.0	19.8	30.28	52.7	884.0	12.98	-40.1	0	66.7	56.9	65.7	0	186	0	0	0	75.6	57.3	0.0
2017 05/21 19:00	-118.4	-47.4	68.6	22.0	30.29	53.1	881.0	12.99	-40.0	0	66.3	56.0	64.3	0	186	0	0	0	75.1	57.2	0.0
2017 05/21 19:15	-123.8	-50.4	66.3	22.7	30.29	53.3	940.0	13.01	-39.9	0	66.6	55.1	61.9	0	186	0	0	0	74.7	56.9	0.0
2017 05/21 19:30	-122.7	-49.9	81.6	22.4	30.29	53.5	919.0	12.99	-40.0	0	66.7	54.2	60.9	0	186	0	0	0	73.8	56.7	0.0
2017 05/21 19:45	-115.4	-45.9	60.8	23.6	30.30	53.7	911.0	13.01	-40.0	0	66.1	53.3	59.5	0	186	0	0	0	73.0	56.4	0.0
2017 05/21 20:00	-121.8	-49.6	62.4	25.4	30.30	53.9	888.0	13.01	-40.0	0	65.9	52.4	58.7	0	186	0	0	0	72.2	56.0	0.0
2017 05/21 20:15	-122.3	-49.7	70.5	26.0	30.30	54.1	889.0	13.00	-40.0	0	66.5	51.5	58.2	0	186	0	0	0	71.5	55.8	0.0
2017 05/21 20:30	-115.5	-45.9	72.7	26.8	30.30	54.4	830.0	12.99	-40.0	0	66.3	51.5	57.3	0	186	0	0	0	70.8	55.5	0.0
2017 05/21 20:45	-113.8	-45.1	70.1	24.8	30.31	54.5	316.2	12.98	-40.0	0	66.3	49.7	56.8	0	186	0	0	0	69.9	55.1	0.0
2017 05/21 21:00	-121.5	-49.2	82.2	26.5	30.31	54.6	65.5	12.99	-40.0	0	66.4	49.7	56.1	0	186	0	0	0	69.0	54.8	0.0
2017 05/21 21:15	-121.6	-49.2	66.2	29.8	30.32	54.6	10.9	13.01	-40.0	0	66.5	49.7	55.9	0	186	0	0	0	68.4	54.6	0.0
2017 05/21 21:30	-121.3	-49.0	67.9	29.3	30.32	54.6	2.0	13.02	-39.9	0	66.3	49.7	55.8	0	186	0	0	0	67.6	54.2	0.0
2017 05/21 21:45	-114.6	-45.3	71.2	29.4	30.33	54.6	0.3	13.00	-40.0	0	66.4	49.7	55.9	0	186	0	0	0	66.8	53.9	0.0
2017 05/21 22:00	-113.8	-44.8	69.0	28.0	30.33	54.6	-0.3	13.01	-40.0	0	66.1	49.7	55.3	0	186	0	0	0	66.0	53.4	0.0
2017 05/21 22:15	-122.4	-49.5	70.3	27.8	30.33	54.6	-0.3	13.01	-40.1	0	66.2	49.7	55.5	0	186	0	0	0	65.7	53.3	0.0
2017 05/21 22:30	-113.9	-44.7	86.8	28.0	30.34	54.4	0.0	13.01	-40.0	0	66.3	48.8	54.2	0	186	0	0	0	64.9	52.8	0.0
2017 05/21 22:45	-122.4	-49.3	81.7	26.7	30.33	54.4	0.0	13.01	-40.1	0	66.3	48.8	53.5	0	186	0	0	0	64.2	52.4	0.0
2017 05/21 23:00	-115.7	-45.4	76.1	26.1	30.33	54.3	0.0	12.99	-40.1	0	66.1	48.8	51.5	0	186	0	0	0	63.7	52.3	0.0
2017 05/21 23:15	-114.7	-44.5	81.5	26.8	30.33	54.1	0.0	13.01	-40.0	0	66.1	47.9	49.2	0	186	0	0	0	63.3	52.2	0.0
2017 05/21 23:30	-116.6	-45.2	83.6	26.1	30.33	54.1	0.0	12.98	-40.0	0	66.1	47.9	48.7	0	186	0	0	0	62.8	52.0	0.0
2017 05/21 23:45	-114.9	-44.2	81.1	25.6	30.33	53.9	0.0	12.99	-40.0	0	66.1	47.9	50.5	0	186	0	0	0	62.3	51.6	0.0
2017 05/22 00:00	-122.6	-48.0	77.3	25.2	30.32	53.8	0.0	12.99	-39.9	0	65.9	47.9	50.4	0	186	0	0	0	61.8	51.4	0.0
2017 05/22 00:15	-114.1	-43.0	84.2	24.9	30.32	53.7	0.0	13.01	-39.9	0	65.9	47.9	49.3	0	186	0	0	0	61.4	51.3	0.0
2017 05/22 00:30	-115.0	-43.0	84.0	25.2	30.32	53.5	0.0	13.00	-40.0	0	65.8	47.9	48.5	0	186	0	0	0	60.9	51.2	0.0
2017 05/22 00:45	-115.7	-43.2	84.6	25.2	30.32	53.5	0.0	12.99	-40.1	0	65.8	47.9	48.8	0	186	0	0	0	60.3	51.0	0.0
2017 05/22 01:00	-114.9	-42.1	87.2	25.5	30.31	53.3	0.0	13.00	-39.9	0	65.8	47.0	51.4	0	186	0	0	0	59.7	50.7	0.0
2017 05/22 01:15	-122.8	-46.1	90.3	24.9	30.31	53.1	0.0	12.98	-40.0	0	65.6	47.9	51.4	0	186	0	0	0	59.4	50.5	0.0
2017 05/22 01:30	-113.9	-40.6	92.0	25.3	30.30	53.1	0.0	12.99	-40.0	0	65.7	47.9	51.2	0	186	0	0	0	59.0	50.3	0.0
2017 05/22 01:45	-123.8	-45.1	86.0	25.1	30.30	52.9	0.0	12.99	-39.9	0	65.6	47.9	51.4	0	186	0	0	0	58.4	50.1	0.0
2017 05/22 02:00	-123.7	-44.4	93.0	24.9	30.30	52.6	-0.3	13.00	-40.0	0	65.5	47.9	51.3	0	186	0	0	0	57.9	49.8	0.0
2017 05/22 02:15	-124.0	-44.2	88.4	24.0	30.30	52.6	0.0	12.98	-40.0	0	65.4	47.9	50.5	0	186	0	0	0	57.7	49.6	0.0
2017 05/22 02:30	-125.5	-44.4	92.4	23.9	30.29	52.4	0.0	13.00	-39.9	0	65.4	47.9	49.8	0	186	0	0	0	57.3	49.5	0.0
2017 05/22 02:45	-126.0	-44.4	91.6	23.1	30.29	52.3	0.0	12.98	-40.0	0	65.4	47.9	49.9	0	186	0	0	0	56.8	49.3	0.0
2017 05/22 03:00	-127.0	-45.0	87.1	23.6	30.29	52.2	-0.3	12.99	-40.1	0	65.3	47.9	47.9	0	186	0	0	0	56.5	49.0	0.0
2017 05/22 03:15	-127.5	-45.1	89.8	22.1	30.29	52.0	-0.3	12.99	-40.0	0	65.4	47.9	45.8	0	186	0	0	0	56.2	48.9	0.0
2017 05/22 03:30	-120.6	-41.3	86.0	21.9	30.29	52.0	0.0	12.99	-40.0	0	65.3	47.9	45.1	0	186	0	0	0	55.9	48.7	0.0
2017 05/22 03:45	-129.4	-45.9	87.8	22.0	30.28	51.8	-0.3	12.99	-40.0	0	65.1	47.9	44.4	0	186	0	0	0	55.5	48.5	0.0
2017 05/22 04:00	-121.0	-41.5	89.9	22.0	30.28	51.6	0.0	13.00	-40.0	0	64.9	47.9	45.2	0	186	0	0	0	55.1	48.3	0.0
2017 05/22 04:15	-121.1	-42.0	86.8	23.4	30.28	51.6	0.0	13.01	-40.0	0	64.9	47.9	46.2	0	186	0	0	0	54.9	48.2	0.0
2017 05/22 04:30	-120.6	-41.9	91.4	23.1	30.27	51.4	0.0	13.00	-40.0	0	65.1	47.9	45.6	0	186	0	0	0	54.6	47.9	0.0
2017 05/22 04:45	-130.0	-47.0	90.9	23.1	30.27	51.4	0.3	12.98	-40.0	0	65.0	48.8	45.2	0	186	0	0	0	54.2	47.7	0.0
2017 05/22 05:00	-129.5	-46.5	87.5	24.0	30.27	51.1	4.8	12.98	-40.0	0	64.8	47.9	49.2	0	186	0	0	0	53.9	47.6	0.0
2017 05/22 05:15	-128.1	-45.2	90.0	24.8	30.26	51.1	47.5	13.01	-40.0	0	64.8	47.9	49.9	0	186	0	0	0	53.7	47.5	0.0
2017 05/22 05:30	-127.2	-43.8	90.6	23.5	30.26	50.9	253.1	13.00	-40.1	0	64.7	47.9	50.3	0	186	0	0	0	53.3	47.2	0.0
2017 05/22 05:45	-125.0	-40.6	95.9	22.1	30.26	50.9	499.4	12.98	-40.1	0	64.7	47.9	49.4	0	186	0	0	0	53.0	47.1	0.0
2017 05/22 06:00	-116.3	-33.4	88.8	21.9	30.26	50.7	629.0	13.00	-40.1	0	64.5	48.8	49.6	0	186	0	0	0	52.8	47.0	0.0
2017 05/22 06:15	-126.7	-37.3	90.6	22.8	30.26	50.6	705.0	12.98	-40.0	0	63.9	48.8	50.8	0	186	0	0	0	52.5	46.9	0.0
2017 05/22 06:30	-121.2	-33.4	92.4	22.0	30.26	50.5	736.0	12.99	-40.0	0	64.4	50.6	51.1	0	186	0	0	0	52.3	46.7	0.0
2017 05/22 06:45	-119.8	-32.2	97.2	21.8	30.26	50.5	755.0	13.01	-40.0	0	64.3	51.5	52.3	0	186	0	0	0	52.2	46.6	0.0
2017 05/22 07:00	-129.8	-37.7	93.9	20.8	30.25	50.3	767.0	13.00	-40.0	0	64.5	50.6	52.9	0	186	0	0	0	52.1	46.5	0.0
2017 05/22 07:15	-122.2	-33.7	90.2	21.9	30.26	50.3	782.0	13.02	-40.0	0	64.4	51.5	53.9	0	186	0	0	0	52.2	46.5	0.0
2017 05/22 07:30	-130.4	-38.3	93.9	22.8	30.25	50.3	793.0	13.01	-40.0	0	64.3	52.4	54.6	0	186	0	0	0	52.2	46.4	0.0
2017 05/22 07:45	-130.1	-38.7	90.9	21.4	30.26	50.4	800.0	12.98	-40.1	0	64.4	52.4	55.3	0	186	0	0	0	52.5	46.5	0.0
2017 05/22 08:00	-123.4	-35.8	99.6	21.5	30.26	50.4	806.0	13.00	-40.1	0	64.3	53.3	56.4	0	186	0	0	0	52.8	46.8	0.0
2017 05/22 08:15	-132.7	-41.9	94.0	22.2	30.27	50.5	812.0	12.98	-40.0	0	64.2	54.2	57.1	0	186	0	0	0	52.9	47.0	0.0
2017 05/22 08:30	-131.5	-41.5	96.7	20.8	30.27	50.5	818.0	12.98	-40.0	0	63.7	56.0	57.9	0	186	0	0	0	53.2	47.5	0.0
2017 05/22 08:45	-130.0	-40.5	99.3	20.6	30.27	50.6	821.0	13.01	-39.9	0	63.6	56.9	58.8	0	186	0	0	0	54.1	48.0	0.0
2017 05/22 09:00	-121.2	-35.8	81.1	18.0	30.27	50.7	826.0	13.01	-40.0	0	64.2	56.0	59.5	0	186	0	0	0	55.0	48.8	0.0
2017 05/22 09:15	-130.9	-41.5	92.0	18.8	30.28	50.7	831.0	12.98	-40.0	0	64.2	56.0	60.3	0	186	0	0	0	55.7	49.4	0.0
2017 05/22 09:30	-131.2	-42.8	91.1	17.2	30.28	50.9	837.0	13.00	-40.0	0	63.4	58.7	61.2	0	186	0	0	0	56.5	50.0	0.0
2017 05/22 09:45	-131.2	-44.0	91.7	18.0	30.28	51.0	847.0	12.99	-39.9	0	63.8	56.9	61.9	0	186	0	0	0	57.7	51.0	0.0
2017 05/22 10:00	-131.6	-45.5	89.0	17.5	30.28	51.1	850.0	13.00	-40.0	0	64.1	56.9	63.0	0	186	0	0	0	58.8	51.6	0.0
2017 05/22 10:15	-131.0	-46.5	97.8	17.4	30.28	51.4	859.0	13.00	-40.0	0	63.7	58.7	63.3	0	186	0	0	0	59.7	52.4	0.0
2017 05/22 10:30	-121.6	-42.3	90.6	14.9	30.29	51.6	861.0	13.01	-39.9	0	63.7	58.7	63.4	0	186	0	0	0	61.0	53.5	0.0
2017 05/22 10:45	-129.2	-47.3	89.7	15.9	30.29	51.6	862.0	13.01	-39.9	0	63.7	58.7	64.9	0	186	0	0	0	62.5	54.7	0.0
2017 05/22 11:00	-128.1	-47.6	98.1	16.4	30.30	51.8	870.0	13.00	-40.0	0	63.6	59.6	65.5	0	186	0	0	0	63.9	56.0	0.0
2017 05/22 11:15	-127.9	-48.0	92.9	16.0	30.30	52.0	873.0	13.00	-40.0	0	63.3	61.4	65.6	0	186	0	0	0	65.0	56.6	0.0
2017 05/22 11:30	-126.6	-48.0	79.4	16.0	30.30	52.2	850.0	13.01	-40.0	0	63.3	62.3	66.8	0	186	0	0	0	66.7	57.5	0.0
2017 05/22 11:45	-126.2	-48.2	78.9	15.7	30.30	52.4	852.0	12.99	-40.0	0	63.1	63.2	66.4	0	186	0	0	0	68.1	58.3	0.0
2017 05/22 12:00	-117.7	-44.1	90.4	16.4	30.30	52.6	852.0	13.02	-40.0	0	63.2	62.3	67.2	0	186	0	0	0	69.3	59.0	0.0
2017 05/22 12:15	-125.0	-48.5	114.3	16.9	30.30	52.9	861.0	13.01	-40.1	0	63.1	65.0	67.7	0	186	0	0	0	70.3	59.4	0.0
2017 05/22 12:30	-116.0	-44.0	123.3	14.1	30.31	53.1	873.0	12.99	-40.1	0	63.2	66.8	69.7	0	186	0	0	0	71.7	60.1	0.0
2017 05/22 12:45	-124.2	-48.7	94.2	10.8	30.31	53.3	865.0	13.01	-40.0	0	63.0	66.8	69.6	0	186	0	0	0	72.8	60.9	0.0
2017 05/22 13:00	-123.1	-48.3	100.9	14.2	30.31	53.5	868.0	13.00	-40.0	0	63.2	65.0	70.2	0	186	0	0	0	73.7	61.3	0.0
2017 05/22 13:15	-115.2	-44.5	111.8	16.4	30.31	53.7	854.0	13.02	-40.0	0	62.9	66.8	72.3	0	186	0	0	0	74.4	61.9	0.0
2017 05/22 13:30	-121.1	-48.0	127.2	16.7	30.31	53.9	862.0	13.01	-40.0	0	62.8	66.8	71.5	0	186	0	0	0	75.3	62.3	0.0
2017 05/22 13:45	-120.0	-47.6	132.9	12.9	30.32	54.2	871.0	13.00	-39.9	0	61.9	69.5	71.8	0	186	0	0	0	76.0	62.4	0.0
2017 05/22 14:00	-119.1	-47.2	143.0	11.3	30.32	54.6	850.0	12.99	-40.0	0	61.8	67.7	69.3	0	186	0	0	0	76.6	62.7	0.0
2017 05/22 14:15	-118.8	-47.3	128.6	12.5	30.32	54.8	854.0	12.99	-40.0	0	62.4	69.5	73.2	0	186	0	0	0	77.0	62.7	0.0
2017 05/22 14:30	-118.7	-47.4	141.9	9.4	30.33	55.0	854.0	13.01	-40.0	0	61.9	70.4	71.3	0	186	0	0	0	77.4	62.5	0.0
2017 05/22 14:45	-117.7	-47.1	115.6	9.2	30.33	55.2	854.0	13.02	-40.0	0	62.2	69.5	74.1	0	186	0	0	0	78.0	62.4	0.0
2017 05/22 15:00	-116.5	-46.5	146.6	8.3	30.33	55.4	854.0	13.01	-39.9	0	61.9	70.4	74.9	0	186	0	0	0	78.3	62.4	0.0

Where:
  YYYY   = Year
  MM/DD  = Month / Date
  hh:mm  = Hour  : Minute
  Temp   = Temperature outside       (F)              @ 5720', on tower
  Humid  = Humidity    outside       (%)              @ 5720'
  W_dir  = Wind direction / Azimuth  (degrees)        @ 5720'
  W_spd  = Wind speed                (miles per hour) @ 5720'
  Barom  = Sea-level air pressure    (inches of mercury)
  T_int  = Temperature (internal)    (F)              - inside barometer case
  Light  = Outside light level       (no units)       - 0 = dark, 1000 = bright
  Power  = Power supply rail         (Volts)
  Temp2  = Temperature (back-up)     (F)
  P2     = datalogger counter channel "P2" (to be static burst counter)
  Snow   = Snow depth,  mid-mountain (inches)         @ 5010'
  T_mid  = Temperature, mid-mountain (F)              @ 5010'
  T_base = Temperature @ south lodge (F)              @ 4700'
  Precip = Precipitation total       (inches)         @ 4800' (near US20 mp81)

Notes:
1999 07/17
   Barometric data in this listing should have an additional
   temperature correction applied to it, based on the sensor's
   internal temperature:

   P_corrected = Barom + (-0.0223 * T_int) + 0.8887  (inches Hg)

2004 07/03
   The air pressure correction equation has not been checked
   in a long time.  The air pressure reading is best used only
   to observe general trends.

2006 11/18
   Added precipitation gauge.  Depth is precipitation equivalent in water,
   for the water year (beginning October 1st) at the Hogg Pass
   SnoTel station.

2011 03/11
  Fixed data column title bug from adding "T_base" after "T_mid".
  If you notice a bug like this it will get fixed a whole lot sooner
  if you tell me about it.